CPA288 EDDF-VHHH

Flight info

Callsign CPA288
Flight time 11h 19m
Altitude 29000
Route CINDY8S/18 CINDY Z74 HAREM DCT ASLEP DCT TAKUT DCT DINKU L603 BESNI L605 BIBAG Q104 AKIMA DCT STEIN DCT TEGRI/N0487F310 DCT UDROS DCT BAMUP DCT ROLIN N644 ODILI DCT BARAD M747 SUBUT T916 LEYLA N644 NIJAT L88 METKA B476 TAGEP/N0490F330 B476 DARVA/K0917F330 T898 OGOLI N193 SR L163 TISIB L141 KAMUD/K0895S1010 W186 SADAN Y1 LUSMA/K0895S1070 Y1 OMBON W245 OVRAL B330 KWE W181 DUDIT A599 POU R473 SIERA
Aircraft B77W/H-SDE1E2E3FGHIJ2J3J4J5M1RWXY/LB1D1

Departure

Time 2026-04-07 12:32
Airport Frankfurt Main Airport (EDDF)

Arrival

Time 2026-04-07 23:51
Airport Hong Kong International Airport (VHHH)
Time Latitude Longitude Altitude Speed Heading
2026-04-07 11:47 50.05174 8.59185 366 ft 0 kts 339°
2026-04-07 12:16 50.05167 8.59189 364 ft 4 kts 339°
2026-04-07 12:16 50.05141 8.59204 366 ft 4 kts 339°
2026-04-07 12:16 50.05117 8.59217 367 ft 4 kts 340°
2026-04-07 12:16 50.05092 8.59232 370 ft 4 kts 339°
2026-04-07 12:17 50.05076 8.59242 367 ft 4 kts 337°
2026-04-07 12:17 50.05051 8.59260 367 ft 4 kts 327°
2026-04-07 12:17 50.05041 8.59271 366 ft 1 kts 318°
2026-04-07 12:17 50.05058 8.59249 368 ft 4 kts 313°
2026-04-07 12:18 50.05059 8.59216 370 ft 1 kts 257°
2026-04-07 12:21 50.05059 8.59213 370 ft 1 kts 257°
2026-04-07 12:21 50.05057 8.59185 367 ft 4 kts 268°
2026-04-07 12:21 50.05054 8.59125 366 ft 7 kts 262°
2026-04-07 12:22 50.05047 8.59076 367 ft 1 kts 252°
2026-04-07 12:22 50.05043 8.59061 369 ft 3 kts 250°
2026-04-07 12:22 50.05024 8.58978 370 ft 17 kts 250°
2026-04-07 12:22 50.04972 8.58761 369 ft 22 kts 249°
2026-04-07 12:23 50.04923 8.58555 368 ft 20 kts 250°
2026-04-07 12:23 50.04877 8.58362 368 ft 18 kts 249°
2026-04-07 12:23 50.04836 8.58191 371 ft 16 kts 249°
2026-04-07 12:23 50.04795 8.58031 368 ft 16 kts 241°
2026-04-07 12:24 50.04726 8.57916 369 ft 14 kts 223°
2026-04-07 12:24 50.04681 8.57784 367 ft 14 kts 249°
2026-04-07 12:24 50.04644 8.57632 369 ft 17 kts 250°
2026-04-07 12:24 50.04596 8.57432 368 ft 23 kts 250°
2026-04-07 12:25 50.04537 8.57184 369 ft 25 kts 249°
2026-04-07 12:25 50.04476 8.56931 369 ft 25 kts 249°
2026-04-07 12:25 50.04416 8.56679 364 ft 25 kts 250°
2026-04-07 12:25 50.04355 8.56422 367 ft 25 kts 250°
2026-04-07 12:26 50.04294 8.56168 367 ft 25 kts 250°
2026-04-07 12:26 50.04233 8.55914 365 ft 25 kts 249°
2026-04-07 12:26 50.04173 8.55660 361 ft 25 kts 250°
2026-04-07 12:26 50.04111 8.55405 365 ft 25 kts 249°
2026-04-07 12:27 50.04051 8.55152 365 ft 25 kts 250°
2026-04-07 12:27 50.03990 8.54898 360 ft 25 kts 250°
2026-04-07 12:27 50.03929 8.54644 358 ft 25 kts 249°
2026-04-07 12:27 50.03867 8.54391 359 ft 25 kts 243°
2026-04-07 12:28 50.03784 8.54154 358 ft 25 kts 249°
2026-04-07 12:28 50.03723 8.53900 355 ft 25 kts 250°
2026-04-07 12:28 50.03661 8.53647 355 ft 25 kts 248°
2026-04-07 12:29 50.03546 8.53172 353 ft 23 kts 250°
2026-04-07 12:29 50.03489 8.52941 348 ft 20 kts 249°
2026-04-07 12:29 50.03436 8.52744 336 ft 20 kts 249°
2026-04-07 12:29 50.03414 8.52646 338 ft 6 kts 253°
2026-04-07 12:30 50.03388 8.52597 337 ft 6 kts 201°
2026-04-07 12:30 50.03364 8.52593 336 ft 0 kts 180°
2026-04-07 12:31 50.03320 8.52594 337 ft 26 kts 179°
2026-04-07 12:31 50.02865 8.52599 337 ft 103 kts 179°
2026-04-07 12:32 50.01903 8.52611 339 ft 172 kts 179°
2026-04-07 12:32 50.00553 8.52613 488 ft 208 kts 177°
2026-04-07 12:32 49.99078 8.52650 1099 ft 212 kts 177°
2026-04-07 12:32 49.97681 8.52722 1809 ft 204 kts 166°
2026-04-07 12:33 49.96421 8.53743 1899 ft 209 kts 137°
2026-04-07 12:33 49.95511 8.55535 2075 ft 217 kts 114°
2026-04-07 12:33 49.94793 8.57695 2237 ft 234 kts 116°
2026-04-07 12:33 49.94094 8.60012 2614 ft 242 kts 101°
2026-04-07 12:34 49.93949 8.62692 2772 ft 254 kts 90°
2026-04-07 12:34 49.93876 8.65467 3412 ft 260 kts 92°
2026-04-07 12:34 49.93685 8.68235 4145 ft 261 kts 106°
2026-04-07 12:34 49.92717 8.70663 4532 ft 273 kts 138°
2026-04-07 12:35 49.91165 8.72410 5015 ft 280 kts 143°
2026-04-07 12:35 49.89558 8.74166 5591 ft 285 kts 142°
2026-04-07 12:35 49.88094 8.76213 6043 ft 285 kts 121°
2026-04-07 12:35 49.87151 8.78919 6509 ft 289 kts 115°
2026-04-07 12:36 49.86201 8.81691 7079 ft 292 kts 117°
2026-04-07 12:36 49.85209 8.84454 7715 ft 295 kts 117°
2026-04-07 12:36 49.84196 8.87235 8310 ft 298 kts 117°
2026-04-07 12:36 49.83187 8.90005 8885 ft 301 kts 117°
2026-04-07 12:37 49.82153 8.92848 9494 ft 304 kts 117°
2026-04-07 12:37 49.81107 8.95720 10076 ft 308 kts 117°
2026-04-07 12:37 49.80049 8.98631 10566 ft 313 kts 117°
2026-04-07 12:37 49.78952 9.01651 10721 ft 332 kts 117°
2026-04-07 12:38 49.77835 9.04711 10896 ft 350 kts 117°
2026-04-07 12:38 49.76555 9.08229 11043 ft 370 kts 116°
2026-04-07 12:38 49.75562 9.11946 11220 ft 380 kts 103°
2026-04-07 12:38 49.74948 9.15950 11718 ft 385 kts 101°
2026-04-07 12:39 49.74131 9.19924 12261 ft 391 kts 116°
2026-04-07 12:39 49.72507 9.23337 12786 ft 399 kts 133°
2026-04-07 12:39 49.70543 9.26364 13466 ft 402 kts 134°
2026-04-07 12:39 49.68605 9.29514 14122 ft 405 kts 131°
2026-04-07 12:40 49.66715 9.32770 14677 ft 409 kts 130°
2026-04-07 12:40 49.64852 9.36041 15255 ft 413 kts 130°
2026-04-07 12:40 49.63052 9.39506 15829 ft 415 kts 123°
2026-04-07 12:40 49.61581 9.43351 16416 ft 418 kts 115°
2026-04-07 12:41 49.60416 9.47468 16973 ft 420 kts 107°
2026-04-07 12:41 49.59509 9.51775 17499 ft 424 kts 105°
2026-04-07 12:41 49.58613 9.56125 18035 ft 428 kts 105°
2026-04-07 12:41 49.57698 9.60515 18616 ft 431 kts 105°
2026-04-07 12:42 49.56764 9.64928 19120 ft 434 kts 106°
2026-04-07 12:42 49.55816 9.69354 19632 ft 437 kts 106°
2026-04-07 12:42 49.54856 9.73806 20134 ft 439 kts 106°
2026-04-07 12:42 49.53867 9.78269 20640 ft 443 kts 109°
2026-04-07 12:43 49.52588 9.82606 21092 ft 448 kts 116°
2026-04-07 12:43 49.50976 9.86741 21561 ft 453 kts 122°
2026-04-07 12:43 49.49063 9.90617 22023 ft 457 kts 128°
2026-04-07 12:43 49.47026 9.94400 22430 ft 462 kts 128°
2026-04-07 12:44 49.44972 9.98210 22887 ft 465 kts 128°
2026-04-07 12:44 49.42915 10.02056 23367 ft 467 kts 127°
2026-04-07 12:44 49.40859 10.05933 23839 ft 469 kts 127°
2026-04-07 12:44 49.38797 10.09834 24215 ft 472 kts 127°
2026-04-07 12:45 49.36721 10.13755 24582 ft 475 kts 127°
2026-04-07 12:45 49.34652 10.17642 24931 ft 477 kts 127°
2026-04-07 12:45 49.32513 10.21648 25297 ft 480 kts 128°
2026-04-07 12:45 49.30394 10.25612 25651 ft 482 kts 128°
2026-04-07 12:46 49.28291 10.29547 25956 ft 486 kts 127°
2026-04-07 12:46 49.26140 10.33562 26300 ft 488 kts 128°
2026-04-07 12:46 49.23977 10.37580 26650 ft 490 kts 129°
2026-04-07 12:46 49.21648 10.41408 26972 ft 494 kts 135°
2026-04-07 12:47 49.19143 10.45046 27279 ft 496 kts 135°
2026-04-07 12:47 49.16632 10.48695 27586 ft 499 kts 135°
2026-04-07 12:47 49.14131 10.52389 27900 ft 501 kts 134°
2026-04-07 12:47 49.11626 10.56118 28202 ft 503 kts 134°
2026-04-07 12:48 49.09116 10.59854 28490 ft 505 kts 134°
2026-04-07 12:48 49.06592 10.63594 28772 ft 508 kts 134°
2026-04-07 12:48 49.04042 10.67360 28990 ft 511 kts 135°
2026-04-07 12:48 49.01480 10.71123 29232 ft 513 kts 135°
2026-04-07 12:49 48.98940 10.74843 29572 ft 513 kts 135°
2026-04-07 12:49 48.96368 10.78605 29905 ft 512 kts 135°
2026-04-07 12:49 48.93802 10.82357 30274 ft 511 kts 135°
2026-04-07 12:49 48.91239 10.86101 30588 ft 510 kts 135°
2026-04-07 12:50 48.88685 10.89839 30880 ft 509 kts 135°
2026-04-07 12:50 48.86135 10.93578 31175 ft 508 kts 135°
2026-04-07 12:50 48.83579 10.97323 31245 ft 512 kts 135°
2026-04-07 12:51 48.78449 11.04815 31285 ft 510 kts 135°
2026-04-07 12:51 48.73353 11.12227 31288 ft 505 kts 135°
2026-04-07 12:52 48.68319 11.19542 31288 ft 502 kts 133°
2026-04-07 12:52 48.64183 11.27947 31298 ft 498 kts 116°
2026-04-07 12:53 48.61628 11.37613 31308 ft 496 kts 104°
2026-04-07 12:53 48.59610 11.47627 31301 ft 500 kts 105°
2026-04-07 12:54 48.57465 11.57678 31294 ft 504 kts 105°
2026-04-07 12:54 48.55741 11.67903 31291 ft 502 kts 99°
2026-04-07 12:55 48.54303 11.78157 31291 ft 503 kts 99°
2026-04-07 12:55 48.52823 11.88484 31276 ft 502 kts 99°
2026-04-07 12:56 48.51312 11.98757 31277 ft 501 kts 99°
2026-04-07 12:56 48.49788 12.09008 31281 ft 500 kts 99°
2026-04-07 12:57 48.48261 12.19227 31284 ft 499 kts 99°
2026-04-07 12:57 48.46729 12.29430 31279 ft 499 kts 100°
2026-04-07 12:58 48.45188 12.39633 31282 ft 499 kts 100°
2026-04-07 12:58 48.43635 12.49835 31279 ft 500 kts 100°
2026-04-07 12:59 48.42046 12.60039 31280 ft 501 kts 100°
2026-04-07 12:59 48.40483 12.70184 31279 ft 500 kts 97°
2026-04-07 13:00 48.39794 12.80543 31282 ft 495 kts 86°
2026-04-07 13:00 48.40121 12.90859 31285 ft 493 kts 83°
2026-04-07 13:01 48.40475 13.01163 31294 ft 494 kts 84°
2026-04-07 13:01 48.40774 13.11495 31290 ft 495 kts 84°
2026-04-07 13:02 48.41058 13.21854 31278 ft 496 kts 84°
2026-04-07 13:02 48.40501 13.32241 31276 ft 503 kts 99°
2026-04-07 13:03 48.38284 13.42250 31281 ft 507 kts 111°
2026-04-07 13:03 48.35462 13.51973 31281 ft 508 kts 111°
2026-04-07 13:04 48.32659 13.61663 31279 ft 508 kts 110°
2026-04-07 13:04 48.29870 13.71429 31269 ft 509 kts 110°
2026-04-07 13:05 48.27091 13.81193 31271 ft 509 kts 110°
2026-04-07 13:05 48.24302 13.90959 31285 ft 509 kts 110°
2026-04-07 13:06 48.21497 14.00731 31263 ft 509 kts 111°
2026-04-07 13:06 48.18688 14.10466 31233 ft 508 kts 111°
2026-04-07 13:07 48.16352 14.18533 31239 ft 508 kts 111°
2026-04-07 13:07 48.13075 14.29809 31245 ft 508 kts 111°
2026-04-07 13:08 48.10707 14.37924 31242 ft 508 kts 111°
2026-04-07 13:08 48.07874 14.47599 31244 ft 508 kts 111°
2026-04-07 13:09 48.05052 14.57198 31253 ft 508 kts 111°
2026-04-07 13:09 48.02182 14.66920 31257 ft 509 kts 111°
2026-04-07 13:10 47.99314 14.76600 31243 ft 510 kts 111°
2026-04-07 13:10 47.96433 14.86281 31241 ft 511 kts 111°
2026-04-07 13:11 47.93550 14.95934 31240 ft 512 kts 111°
2026-04-07 13:11 47.90646 15.05619 31238 ft 512 kts 111°
2026-04-07 13:12 47.87730 15.15304 31211 ft 513 kts 111°
2026-04-07 13:12 47.84801 15.24990 31209 ft 513 kts 111°
2026-04-07 13:13 47.81869 15.34660 31208 ft 512 kts 112°
2026-04-07 13:13 47.78928 15.44317 31206 ft 512 kts 112°
2026-04-07 13:14 47.75997 15.53900 31202 ft 512 kts 112°
2026-04-07 13:14 47.73040 15.63534 31196 ft 513 kts 112°
2026-04-07 13:15 47.70069 15.73178 31218 ft 514 kts 112°
2026-04-07 13:15 47.67081 15.82838 31201 ft 516 kts 112°
2026-04-07 13:16 47.64076 15.92515 31189 ft 518 kts 112°
2026-04-07 13:16 47.61049 16.02221 31188 ft 518 kts 112°
2026-04-07 13:17 47.58015 16.11919 31197 ft 519 kts 112°
2026-04-07 13:17 47.54988 16.21554 31179 ft 519 kts 112°
2026-04-07 13:18 47.51936 16.31235 31180 ft 518 kts 112°
2026-04-07 13:18 47.48885 16.40874 31193 ft 517 kts 112°
2026-04-07 13:19 47.45828 16.50502 31187 ft 517 kts 112°
2026-04-07 13:19 47.42792 16.60105 31184 ft 514 kts 110°
2026-04-07 13:20 47.40376 16.69971 31197 ft 510 kts 105°
2026-04-07 13:20 47.38097 16.79879 31186 ft 509 kts 106°
2026-04-07 13:21 47.35791 16.89758 31203 ft 510 kts 106°
2026-04-07 13:21 47.33460 16.99601 31205 ft 513 kts 106°
2026-04-07 13:22 47.31087 17.09538 31211 ft 515 kts 106°
2026-04-07 13:22 47.28699 17.19496 31209 ft 517 kts 106°
2026-04-07 13:23 47.26293 17.29489 31215 ft 519 kts 106°
2026-04-07 13:23 47.23871 17.39507 31216 ft 520 kts 106°
2026-04-07 13:24 47.21439 17.49523 31206 ft 520 kts 106°
2026-04-07 13:24 47.18995 17.59539 31231 ft 520 kts 106°
2026-04-07 13:25 47.16543 17.69544 31197 ft 520 kts 106°
2026-04-07 13:25 47.14081 17.79545 31187 ft 520 kts 106°
2026-04-07 13:26 47.11631 17.89453 31181 ft 519 kts 106°
2026-04-07 13:26 47.09157 17.99414 31195 ft 520 kts 106°
2026-04-07 13:27 47.06670 18.09387 31184 ft 521 kts 106°
2026-04-07 13:27 47.04171 18.19360 31169 ft 521 kts 107°
2026-04-07 13:28 47.01661 18.29338 31170 ft 522 kts 107°
2026-04-07 13:28 46.99135 18.39329 31170 ft 523 kts 106°
2026-04-07 13:29 46.96595 18.49333 31172 ft 524 kts 106°
2026-04-07 13:29 46.94048 18.59324 31172 ft 525 kts 107°
2026-04-07 13:30 46.91484 18.69338 31164 ft 525 kts 107°
2026-04-07 13:30 46.88909 18.79349 31166 ft 526 kts 107°
2026-04-07 13:31 46.86319 18.89373 31163 ft 527 kts 107°
2026-04-07 13:31 46.83733 18.99341 31147 ft 527 kts 107°
2026-04-07 13:32 46.81131 19.09322 31169 ft 526 kts 107°
2026-04-07 13:32 46.78521 19.19296 31151 ft 526 kts 107°
2026-04-07 13:33 46.75900 19.29270 31146 ft 526 kts 107°
2026-04-07 13:33 46.71974 19.44129 31169 ft 526 kts 107°
2026-04-07 13:34 46.69330 19.54085 31152 ft 527 kts 107°
2026-04-07 13:34 46.66670 19.64061 31144 ft 528 kts 107°
2026-04-07 13:35 46.63998 19.74032 31148 ft 529 kts 107°
2026-04-07 13:35 46.61309 19.84027 31152 ft 530 kts 107°
2026-04-07 13:36 46.58610 19.94020 31144 ft 531 kts 107°
2026-04-07 13:36 46.55897 20.04020 31132 ft 532 kts 107°
2026-04-07 13:37 46.53194 20.13942 31133 ft 532 kts 107°
2026-04-07 13:37 46.50459 20.23936 31126 ft 532 kts 107°
2026-04-07 13:38 46.47718 20.33914 31128 ft 532 kts 108°
2026-04-07 13:38 46.44889 20.43837 31133 ft 533 kts 109°
2026-04-07 13:39 46.41898 20.53671 31147 ft 533 kts 110°
2026-04-07 13:39 46.38888 20.63496 31146 ft 534 kts 110°
2026-04-07 13:40 46.35892 20.73336 31127 ft 534 kts 109°
2026-04-07 13:40 46.32902 20.83180 31133 ft 534 kts 110°
2026-04-07 13:41 46.29900 20.93035 31138 ft 536 kts 110°
2026-04-07 13:41 46.26902 21.02830 31134 ft 537 kts 110°
2026-04-07 13:42 46.23869 21.12693 31130 ft 537 kts 110°
2026-04-07 13:42 46.20832 21.22531 31142 ft 536 kts 110°
2026-04-07 13:43 46.17780 21.32378 31132 ft 536 kts 110°
2026-04-07 13:43 46.14726 21.42194 31126 ft 536 kts 110°
2026-04-07 13:44 46.11686 21.51929 31125 ft 536 kts 110°
2026-04-07 13:44 46.08621 21.61709 31120 ft 536 kts 110°
2026-04-07 13:45 46.05537 21.71513 31120 ft 536 kts 110°
2026-04-07 13:45 46.02448 21.81291 31116 ft 537 kts 110°
2026-04-07 13:46 45.99351 21.91061 31135 ft 537 kts 110°
2026-04-07 13:46 45.96233 22.00856 31118 ft 538 kts 110°
2026-04-07 13:47 45.93108 22.10635 31114 ft 539 kts 110°
2026-04-07 13:47 45.89968 22.20425 31116 ft 539 kts 110°
2026-04-07 13:48 45.86839 22.30147 31117 ft 540 kts 111°
2026-04-07 13:48 45.83673 22.39948 31098 ft 541 kts 111°
2026-04-07 13:49 45.80500 22.49726 31109 ft 540 kts 111°
2026-04-07 13:49 45.77344 22.59438 31103 ft 541 kts 111°
2026-04-07 13:50 45.74145 22.69210 31120 ft 543 kts 111°
2026-04-07 13:50 45.70924 22.79022 31112 ft 544 kts 111°
2026-04-07 13:51 45.67701 22.88816 31096 ft 544 kts 111°
2026-04-07 13:51 45.64461 22.98622 31076 ft 545 kts 111°
2026-04-07 13:52 45.61218 23.08392 31115 ft 544 kts 111°
2026-04-07 13:52 45.57968 23.18153 31112 ft 544 kts 111°
2026-04-07 13:53 45.54715 23.27894 31081 ft 543 kts 111°
2026-04-07 13:53 45.51449 23.37632 31079 ft 543 kts 112°
2026-04-07 13:54 45.48201 23.47265 31083 ft 543 kts 112°
2026-04-07 13:54 45.44921 23.56980 31078 ft 544 kts 112°
2026-04-07 13:55 45.41629 23.66682 31068 ft 544 kts 112°
2026-04-07 13:55 45.38325 23.76386 31061 ft 545 kts 112°
2026-04-07 13:56 45.35012 23.86080 31070 ft 544 kts 112°
2026-04-07 13:56 45.32254 23.94128 31076 ft 545 kts 112°
2026-04-07 13:57 45.28920 24.03826 31047 ft 546 kts 112°
2026-04-07 13:57 45.25576 24.13511 31037 ft 546 kts 112°
2026-04-07 13:58 45.22225 24.23169 31064 ft 546 kts 112°
2026-04-07 13:58 45.18864 24.32855 31038 ft 548 kts 112°
2026-04-07 13:59 45.15481 24.42555 31023 ft 550 kts 112°
2026-04-07 13:59 45.12078 24.52263 31028 ft 551 kts 112°
2026-04-07 14:00 45.08681 24.61940 31022 ft 552 kts 112°
2026-04-07 14:00 45.05247 24.71665 30997 ft 552 kts 113°
2026-04-07 14:01 45.01809 24.81368 31007 ft 550 kts 113°
2026-04-07 14:01 44.98379 24.91022 31011 ft 549 kts 113°
2026-04-07 14:02 44.94947 25.00649 31012 ft 549 kts 113°
2026-04-07 14:02 44.91524 25.10215 31006 ft 548 kts 113°
2026-04-07 14:03 44.88078 25.19816 31010 ft 549 kts 113°
2026-04-07 14:03 44.84613 25.29432 31009 ft 550 kts 114°
2026-04-07 14:04 44.81127 25.39071 31007 ft 552 kts 114°
2026-04-07 14:04 44.77653 25.48645 31033 ft 553 kts 114°
2026-04-07 14:05 44.74138 25.58296 31008 ft 555 kts 114°
2026-04-07 14:05 44.70604 25.67965 31009 ft 556 kts 114°
2026-04-07 14:06 44.67053 25.77647 31014 ft 557 kts 114°
2026-04-07 14:06 44.63491 25.87323 31024 ft 558 kts 114°
2026-04-07 14:07 44.59919 25.96994 31015 ft 558 kts 114°
2026-04-07 14:07 44.56336 26.06661 31014 ft 558 kts 114°
2026-04-07 14:08 44.52741 26.16325 31029 ft 559 kts 114°
2026-04-07 14:08 44.49157 26.25929 31019 ft 560 kts 114°
2026-04-07 14:09 44.45538 26.35591 31019 ft 560 kts 114°
2026-04-07 14:09 44.41917 26.45223 31020 ft 559 kts 115°
2026-04-07 14:10 44.38288 26.54841 31020 ft 558 kts 115°
2026-04-07 14:10 44.34660 26.64428 31027 ft 557 kts 115°
2026-04-07 14:11 44.31031 26.73983 31029 ft 556 kts 115°
2026-04-07 14:11 44.27396 26.83522 31027 ft 556 kts 115°
2026-04-07 14:12 44.23777 26.92985 31028 ft 557 kts 115°
2026-04-07 14:12 44.20126 27.02503 31043 ft 557 kts 115°
2026-04-07 14:13 44.16456 27.12035 31036 ft 558 kts 115°
2026-04-07 14:13 44.12779 27.21554 31037 ft 559 kts 115°
2026-04-07 14:14 44.09086 27.31081 31072 ft 560 kts 115°
2026-04-07 14:14 44.05373 27.40628 31048 ft 561 kts 115°
2026-04-07 14:15 44.01648 27.50172 31039 ft 562 kts 115°
2026-04-07 14:15 43.97911 27.59714 31053 ft 562 kts 115°
2026-04-07 14:16 43.94162 27.69256 31051 ft 563 kts 115°
2026-04-07 14:16 43.90428 27.78727 31038 ft 563 kts 116°
2026-04-07 14:17 43.86659 27.88253 31039 ft 563 kts 116°
2026-04-07 14:17 43.82878 27.97781 31046 ft 564 kts 116°
2026-04-07 14:18 43.79100 28.07267 31038 ft 562 kts 116°
2026-04-07 14:18 43.75312 28.16745 31043 ft 561 kts 116°
2026-04-07 14:19 43.71532 28.26175 31044 ft 561 kts 116°
2026-04-07 14:19 43.67740 28.35603 31047 ft 561 kts 116°
2026-04-07 14:20 43.63942 28.45015 31051 ft 561 kts 116°
2026-04-07 14:20 43.60137 28.54413 31061 ft 561 kts 116°
2026-04-07 14:21 43.56324 28.63800 31056 ft 561 kts 116°
2026-04-07 14:21 43.52525 28.73121 31066 ft 561 kts 116°
2026-04-07 14:22 43.48672 28.82545 31070 ft 561 kts 116°
2026-04-07 14:22 43.44864 28.91827 31069 ft 561 kts 116°
2026-04-07 14:23 43.41021 29.01166 31071 ft 561 kts 116°
2026-04-07 14:23 43.37170 29.10492 31075 ft 560 kts 116°
2026-04-07 14:24 43.33314 29.19803 31072 ft 560 kts 116°
2026-04-07 14:24 43.29448 29.29105 31078 ft 560 kts 117°
2026-04-07 14:25 43.25581 29.38381 31085 ft 560 kts 117°
2026-04-07 14:25 43.21708 29.47641 31081 ft 560 kts 117°
2026-04-07 14:26 43.17835 29.56875 31078 ft 558 kts 117°
2026-04-07 14:26 43.13960 29.66078 31078 ft 557 kts 117°
2026-04-07 14:27 43.10088 29.75247 31076 ft 556 kts 117°
2026-04-07 14:27 43.06240 29.84333 31082 ft 555 kts 117°
2026-04-07 14:28 43.02366 29.93451 31095 ft 555 kts 117°
2026-04-07 14:28 42.98470 30.02592 31092 ft 556 kts 117°
2026-04-07 14:29 42.94567 30.11722 31094 ft 557 kts 118°
2026-04-07 14:29 42.90652 30.20851 31100 ft 558 kts 118°
2026-04-07 14:30 42.86717 30.29997 31093 ft 559 kts 118°
2026-04-07 14:30 42.82773 30.39138 31098 ft 560 kts 118°
2026-04-07 14:31 42.78814 30.48288 31111 ft 560 kts 118°
2026-04-07 14:31 42.75222 30.57661 31081 ft 556 kts 107°
2026-04-07 14:32 42.73004 30.67653 31104 ft 548 kts 96°
2026-04-07 14:32 42.71956 30.77852 31109 ft 544 kts 91°
2026-04-07 14:33 42.70994 30.88061 31105 ft 545 kts 91°
2026-04-07 14:33 42.69976 30.98216 31099 ft 546 kts 92°
2026-04-07 14:34 42.68915 31.08430 31096 ft 546 kts 92°
2026-04-07 14:34 42.67840 31.18653 31103 ft 546 kts 92°
2026-04-07 14:35 42.66762 31.28862 31102 ft 545 kts 92°
2026-04-07 14:35 42.65678 31.39056 31127 ft 546 kts 92°
2026-04-07 14:36 42.64584 31.49267 31122 ft 547 kts 92°
2026-04-07 14:36 42.63477 31.59499 31102 ft 548 kts 92°
2026-04-07 14:37 42.62360 31.69737 31099 ft 548 kts 93°
2026-04-07 14:37 42.61233 31.79974 31102 ft 549 kts 93°
2026-04-07 14:38 42.60096 31.90225 31106 ft 549 kts 93°
2026-04-07 14:38 42.58958 32.00411 31099 ft 549 kts 93°
2026-04-07 14:39 42.57985 32.15833 31103 ft 544 kts 88°
2026-04-07 14:40 42.57475 32.26009 31102 ft 544 kts 88°
2026-04-07 14:40 42.56927 32.36255 31103 ft 546 kts 88°
2026-04-07 14:41 42.56348 32.46535 31101 ft 547 kts 89°
2026-04-07 14:41 42.55755 32.56828 31099 ft 548 kts 89°
2026-04-07 14:42 42.55152 32.67147 31095 ft 549 kts 89°
2026-04-07 14:42 42.54541 32.77468 31089 ft 549 kts 89°
2026-04-07 14:43 42.53921 32.87796 31092 ft 549 kts 89°
2026-04-07 14:43 42.53292 32.98114 31086 ft 549 kts 89°
2026-04-07 14:44 42.52654 33.08434 31084 ft 549 kts 89°
2026-04-07 14:44 42.52117 33.17006 31093 ft 550 kts 89°
2026-04-07 14:45 42.51461 33.27331 31084 ft 550 kts 89°
2026-04-07 14:45 42.50795 33.37678 31093 ft 551 kts 90°
2026-04-07 14:46 42.50118 33.48031 31083 ft 552 kts 90°
2026-04-07 14:46 42.49432 33.58378 31076 ft 552 kts 90°
2026-04-07 14:47 42.48736 33.68746 31078 ft 552 kts 90°
2026-04-07 14:47 42.48031 33.79101 31077 ft 552 kts 90°
2026-04-07 14:48 42.47315 33.89462 31077 ft 552 kts 90°
2026-04-07 14:48 42.46590 33.99837 31079 ft 553 kts 91°
2026-04-07 14:49 42.45855 34.10213 31075 ft 553 kts 91°
2026-04-07 14:49 42.45112 34.20570 31066 ft 552 kts 91°
2026-04-07 14:50 42.44359 34.30916 31060 ft 551 kts 91°
2026-04-07 14:50 42.43603 34.41191 31065 ft 550 kts 91°
2026-04-07 14:51 42.42836 34.51487 31066 ft 550 kts 91°
2026-04-07 14:51 42.42062 34.61759 31051 ft 548 kts 92°
2026-04-07 14:52 42.41278 34.72026 31086 ft 548 kts 92°
2026-04-07 14:52 42.40485 34.82305 31064 ft 549 kts 92°
2026-04-07 14:53 42.39681 34.92595 31010 ft 550 kts 93°
2026-04-07 14:53 42.38869 35.02862 31041 ft 549 kts 93°
2026-04-07 14:54 42.38048 35.13118 31035 ft 548 kts 94°
2026-04-07 14:54 42.37226 35.23276 31033 ft 547 kts 94°
2026-04-07 14:55 42.36391 35.33493 31022 ft 545 kts 94°
2026-04-07 14:55 42.35550 35.43655 31021 ft 543 kts 94°
2026-04-07 14:56 42.34702 35.53797 31024 ft 543 kts 95°
2026-04-07 14:56 42.33846 35.63930 31024 ft 543 kts 95°
2026-04-07 14:57 42.32981 35.74064 31021 ft 544 kts 95°
2026-04-07 14:57 42.32105 35.84216 31013 ft 545 kts 95°
2026-04-07 14:58 42.31217 35.94399 31011 ft 545 kts 95°
2026-04-07 14:58 42.30326 36.04508 31002 ft 546 kts 95°
2026-04-07 14:59 42.29419 36.14694 30992 ft 545 kts 95°
2026-04-07 14:59 42.28505 36.24851 30994 ft 545 kts 95°
2026-04-07 15:00 42.27582 36.35012 30985 ft 545 kts 96°
2026-04-07 15:00 42.26650 36.45168 30981 ft 545 kts 96°
2026-04-07 15:01 42.25711 36.55301 30988 ft 543 kts 96°
2026-04-07 15:01 42.24764 36.65418 30978 ft 542 kts 96°
2026-04-07 15:02 42.23811 36.75503 30976 ft 541 kts 96°
2026-04-07 15:02 42.22858 36.85500 30975 ft 541 kts 96°
2026-04-07 15:03 42.21889 36.95564 30972 ft 541 kts 96°
2026-04-07 15:03 42.20912 37.05617 30991 ft 541 kts 97°
2026-04-07 15:04 42.19927 37.15664 30970 ft 542 kts 97°
2026-04-07 15:04 42.18928 37.25749 30973 ft 541 kts 97°
2026-04-07 15:05 42.17922 37.35819 30968 ft 541 kts 97°
2026-04-07 15:05 42.16909 37.45866 30962 ft 540 kts 97°
2026-04-07 15:06 42.16420 37.50684 30965 ft 540 kts 97°
2026-04-07 15:06 42.16419 37.50692 30963 ft 540 kts 97°
2026-04-07 15:07 42.15382 37.60828 30959 ft 539 kts 97°
2026-04-07 15:07 42.14363 37.70743 30957 ft 537 kts 97°
2026-04-07 15:08 42.13329 37.80697 30960 ft 536 kts 97°
2026-04-07 15:08 42.12285 37.90646 30958 ft 535 kts 97°
2026-04-07 15:09 42.11235 38.00566 30958 ft 534 kts 97°
2026-04-07 15:09 42.10180 38.10461 30954 ft 533 kts 98°
2026-04-07 15:10 42.09117 38.20344 30957 ft 533 kts 98°
2026-04-07 15:10 42.08046 38.30220 30958 ft 533 kts 98°
2026-04-07 15:11 42.06974 38.40029 30958 ft 531 kts 98°
2026-04-07 15:11 42.05891 38.49852 30951 ft 531 kts 98°
2026-04-07 15:12 42.04801 38.59670 30966 ft 530 kts 98°
2026-04-07 15:12 42.03702 38.69479 30932 ft 530 kts 98°
2026-04-07 15:13 42.02597 38.79263 30949 ft 528 kts 98°
2026-04-07 15:13 42.01486 38.89029 30946 ft 527 kts 98°
2026-04-07 15:14 42.00377 38.98707 30948 ft 527 kts 98°
2026-04-07 15:14 41.99253 39.08431 30942 ft 526 kts 98°
2026-04-07 15:15 41.98124 39.18130 30943 ft 525 kts 98°
2026-04-07 15:15 41.96988 39.27819 30941 ft 524 kts 98°
2026-04-07 15:16 41.95844 39.37492 30947 ft 524 kts 98°
2026-04-07 15:16 41.94694 39.47156 30939 ft 523 kts 98°
2026-04-07 15:17 41.93537 39.56802 30931 ft 522 kts 99°
2026-04-07 15:17 41.92374 39.66421 30930 ft 521 kts 99°
2026-04-07 15:18 41.91206 39.76023 30931 ft 521 kts 99°
2026-04-07 15:18 41.90031 39.85607 30931 ft 520 kts 99°
2026-04-07 15:19 41.88851 39.95164 30926 ft 518 kts 99°
2026-04-07 15:19 41.87666 40.04701 30925 ft 518 kts 99°
2026-04-07 15:20 41.86482 40.14157 30935 ft 517 kts 99°
2026-04-07 15:20 41.85283 40.23669 30931 ft 516 kts 99°
2026-04-07 15:21 41.84079 40.33151 30922 ft 514 kts 99°
2026-04-07 15:21 41.82873 40.42587 30920 ft 513 kts 99°
2026-04-07 15:22 41.81661 40.52012 30923 ft 513 kts 99°
2026-04-07 15:22 41.80444 40.61424 30921 ft 513 kts 99°
2026-04-07 15:23 41.79549 40.70890 30922 ft 512 kts 93°
2026-04-07 15:23 41.79128 40.80416 30928 ft 513 kts 92°
2026-04-07 15:24 41.78699 40.89925 30932 ft 514 kts 93°
2026-04-07 15:24 41.78228 40.99486 30925 ft 513 kts 93°
2026-04-07 15:25 41.77736 41.09022 30916 ft 512 kts 93°
2026-04-07 15:25 41.77237 41.18532 30920 ft 511 kts 93°
2026-04-07 15:26 41.76734 41.28008 30929 ft 509 kts 93°
2026-04-07 15:26 41.76228 41.37414 30932 ft 509 kts 93°
2026-04-07 15:27 41.75712 41.46857 30941 ft 507 kts 93°
2026-04-07 15:27 41.75190 41.56276 30933 ft 506 kts 93°
2026-04-07 15:28 41.74661 41.65673 30936 ft 505 kts 93°
2026-04-07 15:28 41.74125 41.75066 30938 ft 505 kts 94°
2026-04-07 15:29 41.73586 41.84373 30936 ft 505 kts 93°
2026-04-07 15:29 41.73034 41.93770 30926 ft 505 kts 93°
2026-04-07 15:30 41.72478 42.03131 30943 ft 505 kts 93°
2026-04-07 15:30 41.71820 42.12492 30929 ft 505 kts 96°
2026-04-07 15:31 41.70819 42.21788 30943 ft 503 kts 97°
2026-04-07 15:31 41.69766 42.31056 30918 ft 503 kts 97°
2026-04-07 15:32 41.68735 42.40247 30936 ft 502 kts 97°
2026-04-07 15:32 41.67708 42.49496 30935 ft 503 kts 97°
2026-04-07 15:33 41.66679 42.58743 30931 ft 503 kts 97°
2026-04-07 15:33 41.65640 42.67993 30946 ft 502 kts 97°
2026-04-07 15:34 41.64772 42.75666 30948 ft 502 kts 97°
2026-04-07 15:34 41.63551 42.86381 30934 ft 501 kts 97°
2026-04-07 15:35 41.62493 42.95580 30944 ft 501 kts 97°
2026-04-07 15:35 41.61429 43.04781 30937 ft 501 kts 97°
2026-04-07 15:36 41.60540 43.12424 30948 ft 500 kts 97°
2026-04-07 15:36 41.59461 43.21608 30940 ft 500 kts 97°
2026-04-07 15:37 41.58373 43.30807 30951 ft 501 kts 97°
2026-04-07 15:37 41.57282 43.39990 30953 ft 501 kts 98°
2026-04-07 15:38 41.56180 43.49190 30960 ft 501 kts 98°
2026-04-07 15:38 41.55072 43.58379 30962 ft 502 kts 98°
2026-04-07 15:39 41.53954 43.67578 30972 ft 502 kts 98°
2026-04-07 15:39 41.52830 43.76776 30966 ft 502 kts 99°
2026-04-07 15:40 41.51698 43.85962 30972 ft 501 kts 99°
2026-04-07 15:40 41.50569 43.95070 30973 ft 501 kts 99°
2026-04-07 15:41 41.49427 44.04220 30975 ft 500 kts 100°
2026-04-07 15:41 41.48279 44.13364 30979 ft 498 kts 101°
2026-04-07 15:42 41.47128 44.22468 30971 ft 497 kts 101°
2026-04-07 15:42 41.42809 44.56093 30953 ft 493 kts 101°
2026-04-07 15:43 41.41633 44.65108 30958 ft 494 kts 101°
2026-04-07 15:43 41.40450 44.74129 30957 ft 495 kts 101°
2026-04-07 15:44 41.39263 44.83119 30947 ft 496 kts 101°
2026-04-07 15:44 41.38059 44.92179 30937 ft 497 kts 101°
2026-04-07 15:45 41.36850 45.01237 30942 ft 498 kts 101°
2026-04-07 15:45 41.35468 45.10268 30923 ft 497 kts 107°
2026-04-07 15:46 41.33237 45.18969 30927 ft 496 kts 110°
2026-04-07 15:46 41.30953 45.27638 30924 ft 497 kts 110°
2026-04-07 15:47 41.28699 45.36347 30927 ft 497 kts 110°
2026-04-07 15:47 41.26455 45.45056 30912 ft 499 kts 110°
2026-04-07 15:48 41.24197 45.53776 30905 ft 500 kts 110°
2026-04-07 15:48 41.21940 45.62458 30906 ft 500 kts 110°
2026-04-07 15:49 41.19650 45.71191 30905 ft 501 kts 110°
2026-04-07 15:49 41.17336 45.79907 30895 ft 501 kts 110°
2026-04-07 15:50 41.15015 45.88624 30896 ft 500 kts 110°
2026-04-07 15:50 41.12699 45.97306 30891 ft 498 kts 110°
2026-04-07 15:51 41.10385 46.05956 30893 ft 497 kts 110°
2026-04-07 15:51 41.08065 46.14598 30892 ft 496 kts 110°
2026-04-07 15:52 41.05748 46.23200 30897 ft 495 kts 111°
2026-04-07 15:52 41.03432 46.31778 30901 ft 494 kts 110°
2026-04-07 15:53 41.01143 46.40364 30902 ft 494 kts 110°
2026-04-07 15:53 40.98875 46.48877 30891 ft 493 kts 111°
2026-04-07 15:54 40.96584 46.57430 30912 ft 493 kts 111°
2026-04-07 15:54 40.94286 46.65972 30907 ft 493 kts 111°
2026-04-07 15:55 40.91981 46.74517 30898 ft 493 kts 111°
2026-04-07 15:55 40.90684 46.83382 30907 ft 495 kts 91°
2026-04-07 15:56 40.91619 46.92384 30919 ft 496 kts 75°
2026-04-07 15:56 40.93372 47.01250 30915 ft 499 kts 76°
2026-04-07 15:57 40.95082 47.10167 30924 ft 500 kts 76°
2026-04-07 15:57 40.96737 47.19110 30924 ft 501 kts 77°
2026-04-07 15:58 40.98371 47.28065 30912 ft 500 kts 77°
2026-04-07 15:58 40.99987 47.36956 30913 ft 499 kts 77°
2026-04-07 15:59 41.01603 47.45873 30917 ft 498 kts 77°
2026-04-07 15:59 41.03215 47.54800 30923 ft 498 kts 77°
2026-04-07 16:00 41.04820 47.63741 30915 ft 499 kts 77°
2026-04-07 16:00 41.06424 47.72714 30916 ft 502 kts 78°
2026-04-07 16:01 41.08030 47.81745 30918 ft 504 kts 78°
2026-04-07 16:01 41.09630 47.90814 30918 ft 506 kts 79°
2026-04-07 16:02 41.10231 47.99992 30902 ft 503 kts 94°
2026-04-07 16:02 41.09250 48.09134 30910 ft 500 kts 104°
2026-04-07 16:03 41.07735 48.18134 30889 ft 500 kts 104°
2026-04-07 16:03 41.06248 48.27130 30882 ft 499 kts 104°
2026-04-07 16:04 41.04792 48.36130 30884 ft 499 kts 104°
2026-04-07 16:04 41.03340 48.45123 30875 ft 500 kts 104°
2026-04-07 16:05 41.01876 48.54136 30871 ft 500 kts 104°
2026-04-07 16:05 41.00403 48.63145 30873 ft 501 kts 104°
2026-04-07 16:06 40.98924 48.72138 30855 ft 499 kts 104°
2026-04-07 16:06 40.97446 48.81092 30857 ft 497 kts 104°
2026-04-07 16:07 40.95967 48.90000 30830 ft 495 kts 104°
2026-04-07 16:07 40.94485 48.98877 30840 ft 494 kts 104°
2026-04-07 16:08 40.93008 49.07677 30851 ft 494 kts 104°
2026-04-07 16:08 40.91513 49.16544 30841 ft 495 kts 104°
2026-04-07 16:09 40.90008 49.25437 30834 ft 496 kts 104°
2026-04-07 16:09 40.88496 49.34327 30831 ft 496 kts 105°
2026-04-07 16:10 40.86903 49.43177 30843 ft 495 kts 107°
2026-04-07 16:10 40.85254 49.52000 30847 ft 493 kts 106°
2026-04-07 16:11 40.83611 49.60792 30847 ft 493 kts 106°
2026-04-07 16:11 40.81970 49.69587 30865 ft 493 kts 106°
2026-04-07 16:12 40.80327 49.78379 30867 ft 494 kts 106°
2026-04-07 16:12 40.78673 49.87189 30878 ft 495 kts 106°
2026-04-07 16:13 40.77027 49.95914 30871 ft 487 kts 106°
2026-04-07 16:13 40.75396 50.04524 30883 ft 484 kts 106°
2026-04-07 16:14 40.73752 50.13153 30896 ft 486 kts 106°
2026-04-07 16:14 40.72094 50.21822 30892 ft 488 kts 106°
2026-04-07 16:15 40.70428 50.30508 30890 ft 488 kts 106°
2026-04-07 16:15 40.68789 50.39192 30897 ft 488 kts 103°
2026-04-07 16:16 40.68086 50.48051 30912 ft 491 kts 92°
2026-04-07 16:16 40.68452 50.57034 30907 ft 491 kts 88°
2026-04-07 16:17 40.68925 50.66008 30909 ft 491 kts 88°
2026-04-07 16:17 40.69357 50.74986 30907 ft 490 kts 88°
2026-04-07 16:18 40.69760 50.83955 30914 ft 490 kts 88°
2026-04-07 16:18 40.70153 50.92937 30918 ft 491 kts 89°
2026-04-07 16:19 40.70542 51.01936 30928 ft 492 kts 89°
2026-04-07 16:19 40.70922 51.10876 30932 ft 492 kts 89°
2026-04-07 16:20 40.71298 51.19898 30924 ft 493 kts 89°
2026-04-07 16:20 40.71668 51.28927 30929 ft 493 kts 89°
2026-04-07 16:21 40.72031 51.37954 30938 ft 493 kts 89°
2026-04-07 16:21 40.72390 51.46973 30937 ft 493 kts 88°
2026-04-07 16:22 40.73388 51.55921 30947 ft 494 kts 79°
2026-04-07 16:22 40.74906 51.64753 30939 ft 494 kts 79°
2026-04-07 16:23 40.76402 51.73605 30941 ft 493 kts 79°
2026-04-07 16:23 40.77855 51.82454 30938 ft 493 kts 79°
2026-04-07 16:24 40.79280 51.91246 30941 ft 492 kts 79°
2026-04-07 16:24 40.80704 52.00078 30937 ft 492 kts 79°
2026-04-07 16:25 40.82121 52.08893 30937 ft 490 kts 79°
2026-04-07 16:25 40.83291 52.16204 30940 ft 489 kts 79°
2026-04-07 16:26 40.84689 52.24987 30948 ft 488 kts 79°
2026-04-07 16:26 40.86079 52.33761 30942 ft 488 kts 79°
2026-04-07 16:27 40.87463 52.42546 30946 ft 488 kts 79°
2026-04-07 16:27 40.88842 52.51341 30949 ft 489 kts 79°
2026-04-07 16:28 40.90188 52.60149 30947 ft 489 kts 82°
2026-04-07 16:28 40.90754 52.69040 30947 ft 488 kts 89°
2026-04-07 16:29 40.91082 52.78012 30950 ft 489 kts 88°
2026-04-07 16:29 40.91446 52.86995 30949 ft 490 kts 88°
2026-04-07 16:30 40.91831 52.96026 30947 ft 491 kts 88°
2026-04-07 16:30 40.92206 53.04979 30952 ft 491 kts 88°
2026-04-07 16:31 40.92574 53.14008 30949 ft 492 kts 88°
2026-04-07 16:31 40.92921 53.23055 30955 ft 493 kts 88°
2026-04-07 16:32 40.93256 53.32107 30950 ft 493 kts 88°
2026-04-07 16:32 40.93587 53.41162 30950 ft 493 kts 88°
2026-04-07 16:33 40.93912 53.50228 30947 ft 493 kts 88°
2026-04-07 16:33 40.94230 53.59280 30952 ft 493 kts 88°
2026-04-07 16:34 40.94541 53.68339 30950 ft 493 kts 88°
2026-04-07 16:34 40.94846 53.77417 30950 ft 493 kts 89°
2026-04-07 16:35 40.95143 53.86475 30946 ft 493 kts 88°
2026-04-07 16:35 40.95433 53.95558 30954 ft 493 kts 88°
2026-04-07 16:36 40.95716 54.04629 30948 ft 494 kts 88°
2026-04-07 16:36 40.95990 54.13657 30938 ft 494 kts 88°
2026-04-07 16:37 40.96260 54.22754 30949 ft 495 kts 88°
2026-04-07 16:37 40.96523 54.31869 30950 ft 496 kts 88°
2026-04-07 16:38 40.96779 54.41001 30955 ft 497 kts 89°
2026-04-07 16:38 40.97028 54.50144 30953 ft 497 kts 89°
2026-04-07 16:39 40.97270 54.59291 30949 ft 497 kts 89°
2026-04-07 16:39 40.97505 54.68429 30959 ft 496 kts 89°
2026-04-07 16:40 40.97732 54.77543 30940 ft 495 kts 89°
2026-04-07 16:40 40.97952 54.86641 30958 ft 494 kts 89°
2026-04-07 16:41 40.98161 54.95726 30953 ft 494 kts 89°
2026-04-07 16:41 40.98358 55.04810 30955 ft 494 kts 89°
2026-04-07 16:42 40.98549 55.13909 30954 ft 494 kts 89°
2026-04-07 16:42 40.98735 55.23009 30978 ft 497 kts 89°
2026-04-07 16:43 40.98824 55.27539 31169 ft 499 kts 89°
2026-04-07 16:43 40.98913 55.32129 31411 ft 499 kts 89°
2026-04-07 16:43 40.99001 55.36735 31597 ft 502 kts 89°
2026-04-07 16:43 40.99087 55.41370 31701 ft 506 kts 89°
2026-04-07 16:44 40.99172 55.46035 31822 ft 508 kts 89°
2026-04-07 16:44 40.99255 55.50715 32031 ft 509 kts 89°
2026-04-07 16:44 40.99336 55.55395 32286 ft 508 kts 89°
2026-04-07 16:44 40.99416 55.60072 32534 ft 508 kts 89°
2026-04-07 16:45 40.99493 55.64754 32766 ft 508 kts 89°
2026-04-07 16:45 40.99570 55.69447 32871 ft 511 kts 89°
2026-04-07 16:45 40.99717 55.78857 32925 ft 507 kts 89°
2026-04-07 16:46 40.99865 55.88101 32931 ft 500 kts 89°
2026-04-07 16:46 41.00010 55.97296 32933 ft 500 kts 89°
2026-04-07 16:47 41.00147 56.06507 32939 ft 501 kts 89°
2026-04-07 16:47 41.00276 56.15686 32934 ft 502 kts 89°
2026-04-07 16:48 41.00398 56.24946 32936 ft 503 kts 89°
2026-04-07 16:49 41.00568 56.38846 32930 ft 504 kts 89°
2026-04-07 16:49 41.00675 56.48132 32929 ft 503 kts 89°
2026-04-07 16:50 41.01393 56.57337 32931 ft 502 kts 81°
2026-04-07 16:50 41.02541 56.66445 32917 ft 501 kts 80°
2026-04-07 16:51 41.03666 56.75553 32924 ft 501 kts 81°
2026-04-07 16:51 41.04752 56.84660 32926 ft 500 kts 81°
2026-04-07 16:52 41.05812 56.93717 32929 ft 500 kts 81°
2026-04-07 16:52 41.06876 57.02885 32924 ft 500 kts 81°
2026-04-07 16:53 41.07929 57.11997 32921 ft 500 kts 81°
2026-04-07 16:53 41.08975 57.21113 32918 ft 500 kts 81°
2026-04-07 16:54 41.10008 57.30168 32924 ft 500 kts 81°
2026-04-07 16:54 41.11040 57.39292 32915 ft 500 kts 81°
2026-04-07 16:55 41.12065 57.48420 32916 ft 500 kts 81°
2026-04-07 16:55 41.13082 57.57541 32917 ft 500 kts 81°
2026-04-07 16:56 41.14092 57.66668 32911 ft 500 kts 81°
2026-04-07 16:56 41.15094 57.75793 32911 ft 500 kts 81°
2026-04-07 16:57 41.16089 57.84916 32909 ft 500 kts 81°
2026-04-07 16:57 41.17078 57.94053 32909 ft 500 kts 81°
2026-04-07 16:58 41.18060 58.03192 32905 ft 500 kts 81°
2026-04-07 16:58 41.19033 58.12328 32908 ft 500 kts 82°
2026-04-07 16:59 41.19998 58.21481 32908 ft 500 kts 82°
2026-04-07 16:59 41.20953 58.30624 32912 ft 500 kts 82°
2026-04-07 17:00 41.21896 58.39719 32907 ft 499 kts 82°
2026-04-07 17:00 41.22835 58.48837 32903 ft 498 kts 82°
2026-04-07 17:01 41.23765 58.57947 32901 ft 497 kts 82°
2026-04-07 17:01 41.24687 58.67047 32906 ft 497 kts 82°
2026-04-07 17:02 41.25601 58.76139 32905 ft 497 kts 82°
2026-04-07 17:02 41.26510 58.85254 32903 ft 497 kts 82°
2026-04-07 17:03 41.27410 58.94358 32898 ft 497 kts 82°
2026-04-07 17:03 41.28303 59.03466 32906 ft 497 kts 82°
2026-04-07 17:04 41.29189 59.12578 32899 ft 496 kts 82°
2026-04-07 17:04 41.30067 59.21681 32894 ft 496 kts 82°
2026-04-07 17:05 41.30931 59.30714 32892 ft 495 kts 82°
2026-04-07 17:05 41.31791 59.39790 32898 ft 494 kts 83°
2026-04-07 17:06 41.32644 59.48860 32889 ft 493 kts 83°
2026-04-07 17:06 41.33488 59.57905 32885 ft 492 kts 83°
2026-04-07 17:07 41.34220 59.66955 32883 ft 492 kts 88°
2026-04-07 17:07 41.33956 59.76032 32891 ft 490 kts 95°
2026-04-07 17:08 41.33470 59.85073 32889 ft 490 kts 94°
2026-04-07 17:08 41.33035 59.94116 32890 ft 490 kts 94°
2026-04-07 17:09 41.32615 60.03111 32888 ft 490 kts 94°
2026-04-07 17:09 41.32184 60.12152 32889 ft 490 kts 94°
2026-04-07 17:10 41.31754 60.21186 32887 ft 489 kts 95°
2026-04-07 17:10 41.31317 60.30202 32889 ft 488 kts 95°
2026-04-07 17:11 41.30875 60.39199 32887 ft 487 kts 95°
2026-04-07 17:11 41.30900 60.48212 32886 ft 487 kts 86°
2026-04-07 17:12 41.31432 60.57198 32891 ft 487 kts 87°
2026-04-07 17:12 41.31946 60.66155 32885 ft 486 kts 87°
2026-04-07 17:13 41.32344 60.73623 32889 ft 485 kts 88°
2026-04-07 17:13 41.32802 60.82576 32893 ft 485 kts 88°
2026-04-07 17:14 41.33253 60.91528 32889 ft 484 kts 88°
2026-04-07 17:14 41.33695 61.00437 32889 ft 482 kts 88°
2026-04-07 17:15 41.34131 61.09338 32891 ft 481 kts 88°
2026-04-07 17:15 41.34560 61.18218 32893 ft 480 kts 89°
2026-04-07 17:16 41.34979 61.27051 32891 ft 480 kts 89°
2026-04-07 17:16 41.35392 61.35885 32898 ft 478 kts 89°
2026-04-07 17:17 41.35798 61.44714 32895 ft 477 kts 89°
2026-04-07 17:17 41.36192 61.53530 32897 ft 476 kts 89°
2026-04-07 17:18 41.36580 61.62337 32894 ft 476 kts 89°
2026-04-07 17:18 41.36960 61.71116 32899 ft 476 kts 89°
2026-04-07 17:19 41.37330 61.79841 32901 ft 477 kts 90°
2026-04-07 17:19 41.37697 61.88616 32901 ft 479 kts 90°
2026-04-07 17:20 41.38060 61.97461 32899 ft 478 kts 90°
2026-04-07 17:20 41.38417 62.06308 32894 ft 477 kts 90°
2026-04-07 17:21 41.38764 62.15107 32899 ft 475 kts 90°
2026-04-07 17:21 41.39104 62.23879 32885 ft 473 kts 91°
2026-04-07 17:22 41.39434 62.32568 32895 ft 472 kts 91°
2026-04-07 17:22 41.39758 62.41290 32898 ft 471 kts 91°
2026-04-07 17:23 41.40076 62.50003 32901 ft 471 kts 91°
2026-04-07 17:23 41.40411 62.58723 32902 ft 471 kts 91°
2026-04-07 17:24 41.40760 62.67452 32899 ft 472 kts 91°
2026-04-07 17:24 41.41102 62.76190 32901 ft 473 kts 91°
2026-04-07 17:25 41.41435 62.84950 32879 ft 473 kts 92°
2026-04-07 17:25 41.41599 62.89319 32294 ft 463 kts 93°
2026-04-07 17:25 41.41745 62.93801 31134 ft 481 kts 94°
2026-04-07 17:25 41.41943 62.98040 32553 ft 427 kts 92°
2026-04-07 17:26 41.42097 63.01824 33860 ft 410 kts 92°
2026-04-07 17:26 41.42222 63.05788 32885 ft 440 kts 93°
2026-04-07 17:26 41.42351 63.09849 33114 ft 442 kts 92°
2026-04-07 17:26 41.42484 63.14000 32959 ft 452 kts 93°
2026-04-07 17:27 41.42625 63.18228 32943 ft 460 kts 92°
2026-04-07 17:27 41.42919 63.26864 32917 ft 473 kts 92°
2026-04-07 17:28 41.43219 63.35668 32900 ft 479 kts 92°
2026-04-07 17:28 41.43514 63.44524 32875 ft 478 kts 93°
2026-04-07 17:29 41.43797 63.53346 32895 ft 475 kts 93°
2026-04-07 17:29 41.44071 63.62122 32905 ft 473 kts 93°
2026-04-07 17:30 41.44333 63.70878 32902 ft 472 kts 93°
2026-04-07 17:30 41.44573 63.79607 32900 ft 470 kts 94°
2026-04-07 17:31 41.44805 63.88305 32911 ft 470 kts 94°
2026-04-07 17:31 41.45032 63.97018 32915 ft 470 kts 94°
2026-04-07 17:32 41.45253 64.05731 32888 ft 470 kts 94°
2026-04-07 17:32 41.45467 64.14399 32909 ft 470 kts 94°
2026-04-07 17:33 41.45675 64.23119 32924 ft 471 kts 94°
2026-04-07 17:33 41.45878 64.31849 32925 ft 471 kts 95°
2026-04-07 17:34 41.46075 64.40597 32913 ft 471 kts 95°
2026-04-07 17:34 41.46264 64.49326 32926 ft 471 kts 95°
2026-04-07 17:35 41.46448 64.58064 32929 ft 471 kts 95°
2026-04-07 17:35 41.46622 64.66787 32931 ft 471 kts 95°
2026-04-07 17:36 41.46793 64.75518 32926 ft 471 kts 95°
2026-04-07 17:36 41.46956 64.84239 32925 ft 470 kts 95°
2026-04-07 17:37 41.47111 64.92907 32931 ft 470 kts 95°
2026-04-07 17:37 41.47261 65.01631 32917 ft 469 kts 95°
2026-04-07 17:38 41.47403 65.10330 32926 ft 469 kts 95°
2026-04-07 17:38 41.47539 65.19041 32930 ft 469 kts 95°
2026-04-07 17:39 41.47668 65.27739 32934 ft 470 kts 95°
2026-04-07 17:39 41.47792 65.36445 32927 ft 469 kts 95°
2026-04-07 17:40 41.47908 65.45105 32944 ft 470 kts 95°
2026-04-07 17:40 41.48018 65.53824 32931 ft 470 kts 95°
2026-04-07 17:41 41.48121 65.62542 32897 ft 470 kts 95°
2026-04-07 17:41 41.48220 65.71253 32930 ft 470 kts 95°
2026-04-07 17:42 41.48310 65.79962 32934 ft 469 kts 95°
2026-04-07 17:42 41.48346 65.88652 32939 ft 468 kts 96°
2026-04-07 17:43 41.48355 65.97330 32934 ft 467 kts 96°
2026-04-07 17:43 41.48363 66.06005 32936 ft 467 kts 96°
2026-04-07 17:44 41.48370 66.14662 32939 ft 467 kts 96°
2026-04-07 17:44 41.48371 66.23270 32943 ft 467 kts 96°
2026-04-07 17:45 41.48366 66.31929 32939 ft 467 kts 96°
2026-04-07 17:45 41.48353 66.40595 32943 ft 467 kts 96°
2026-04-07 17:46 41.48335 66.49252 32943 ft 467 kts 96°
2026-04-07 17:46 41.48306 66.57909 32908 ft 466 kts 97°
2026-04-07 17:47 41.47585 66.66390 32939 ft 456 kts 107°
2026-04-07 17:47 41.46329 66.74624 32946 ft 456 kts 107°
2026-04-07 17:48 41.45084 66.82928 32946 ft 457 kts 107°
2026-04-07 17:48 41.43855 66.91230 32921 ft 456 kts 107°
2026-04-07 17:49 41.42629 66.99522 32934 ft 456 kts 107°
2026-04-07 17:49 41.41399 67.07792 32940 ft 455 kts 107°
2026-04-07 17:50 41.40165 67.16044 32940 ft 454 kts 107°
2026-04-07 17:50 41.38924 67.24296 32912 ft 454 kts 107°
2026-04-07 17:51 41.37680 67.32527 32936 ft 454 kts 107°
2026-04-07 17:51 41.36429 67.40760 32949 ft 454 kts 107°
2026-04-07 17:52 41.35169 67.49006 32949 ft 454 kts 107°
2026-04-07 17:52 41.33906 67.57241 32925 ft 454 kts 107°
2026-04-07 17:53 41.32638 67.65466 32943 ft 453 kts 107°
2026-04-07 17:53 41.30728 67.77776 32954 ft 453 kts 107°
2026-04-07 17:54 41.29448 67.85983 32953 ft 453 kts 107°
2026-04-07 17:54 41.28204 67.94153 32947 ft 455 kts 104°
2026-04-07 17:55 41.27456 68.02537 32965 ft 457 kts 102°
2026-04-07 17:55 41.26741 68.10927 32954 ft 457 kts 102°
2026-04-07 17:56 41.26004 68.19318 32948 ft 457 kts 103°
2026-04-07 17:56 41.25254 68.27691 32950 ft 456 kts 103°
2026-04-07 17:57 41.24498 68.36052 32957 ft 455 kts 103°
2026-04-07 17:57 41.23736 68.44405 32955 ft 455 kts 103°
2026-04-07 17:58 41.22970 68.52737 32958 ft 454 kts 103°
2026-04-07 17:58 41.22199 68.61071 32967 ft 453 kts 103°
2026-04-07 17:59 41.21427 68.69326 32963 ft 453 kts 103°
2026-04-07 17:59 41.20645 68.77641 32969 ft 453 kts 103°
2026-04-07 18:00 41.19860 68.85941 32962 ft 454 kts 103°
2026-04-07 18:00 41.19183 68.94289 32963 ft 458 kts 97°
2026-04-07 18:01 41.19003 69.02748 32976 ft 459 kts 97°
2026-04-07 18:01 41.18837 69.09796 32971 ft 460 kts 97°
2026-04-07 18:02 41.18611 69.18289 32971 ft 460 kts 97°
2026-04-07 18:02 41.18188 69.26747 32968 ft 458 kts 101°
2026-04-07 18:03 41.17480 69.35172 32974 ft 460 kts 101°
2026-04-07 18:03 41.16758 69.43628 32983 ft 462 kts 101°
2026-04-07 18:04 41.16044 69.52114 32984 ft 463 kts 101°
2026-04-07 18:04 41.15334 69.60601 32974 ft 463 kts 101°
2026-04-07 18:05 41.14617 69.69079 32967 ft 463 kts 101°
2026-04-07 18:05 41.13894 69.77560 32977 ft 463 kts 101°
2026-04-07 18:06 41.13164 69.86039 32969 ft 463 kts 101°
2026-04-07 18:06 41.12431 69.94470 32946 ft 463 kts 101°
2026-04-07 18:07 41.11686 70.02970 32951 ft 464 kts 101°
2026-04-07 18:07 41.10937 70.11459 32930 ft 463 kts 101°
2026-04-07 18:08 41.10184 70.19938 32933 ft 464 kts 100°
2026-04-07 18:08 41.10040 70.28556 32912 ft 471 kts 89°
2026-04-07 18:09 41.10740 70.37206 32899 ft 472 kts 88°
2026-04-07 18:09 41.11424 70.45855 32910 ft 472 kts 89°
2026-04-07 18:10 41.12062 70.54445 32863 ft 471 kts 88°
2026-04-07 18:10 41.12692 70.63089 32872 ft 472 kts 88°
2026-04-07 18:11 41.13318 70.71753 32874 ft 472 kts 89°
2026-04-07 18:11 41.13923 70.80428 32858 ft 472 kts 89°
2026-04-07 18:12 41.14515 70.89109 32847 ft 472 kts 88°
2026-04-07 18:12 41.15102 70.97787 32858 ft 471 kts 88°
2026-04-07 18:13 41.15683 71.06452 32868 ft 471 kts 89°
2026-04-07 18:13 41.16257 71.15115 32856 ft 471 kts 89°
2026-04-07 18:14 41.16824 71.23767 32866 ft 471 kts 89°
2026-04-07 18:14 41.17385 71.32433 32860 ft 471 kts 89°
2026-04-07 18:15 41.17939 71.41091 32860 ft 471 kts 89°
2026-04-07 18:15 41.18487 71.49753 32859 ft 471 kts 89°
2026-04-07 18:16 41.19025 71.58369 32843 ft 471 kts 88°
2026-04-07 18:16 41.19560 71.67030 32860 ft 471 kts 88°
2026-04-07 18:17 41.20090 71.75706 32866 ft 472 kts 88°
2026-04-07 18:17 41.20610 71.84405 32869 ft 472 kts 89°
2026-04-07 18:18 41.21114 71.93101 32857 ft 472 kts 88°
2026-04-07 18:18 41.21613 72.01801 32869 ft 473 kts 88°
2026-04-07 18:19 41.22107 72.10504 32875 ft 473 kts 88°
2026-04-07 18:19 41.22597 72.19231 32871 ft 474 kts 88°
2026-04-07 18:20 41.23091 72.27964 32865 ft 474 kts 88°
2026-04-07 18:20 41.23596 72.36696 32888 ft 474 kts 88°
2026-04-07 18:21 41.24088 72.45379 32871 ft 474 kts 88°
2026-04-07 18:21 41.24577 72.54125 32879 ft 473 kts 88°
2026-04-07 18:22 41.25056 72.62863 32864 ft 474 kts 88°
2026-04-07 18:22 41.25511 72.71547 32873 ft 474 kts 88°
2026-04-07 18:23 41.25960 72.80283 32870 ft 474 kts 88°
2026-04-07 18:23 41.26406 72.89025 32873 ft 474 kts 88°
2026-04-07 18:24 41.26844 72.97772 32864 ft 474 kts 88°
2026-04-07 18:24 41.27278 73.06529 32873 ft 475 kts 88°
2026-04-07 18:25 41.27706 73.15304 32884 ft 476 kts 88°
2026-04-07 18:25 41.28126 73.24070 32874 ft 477 kts 88°
2026-04-07 18:26 41.28542 73.32882 32864 ft 478 kts 88°
2026-04-07 18:26 41.28952 73.41714 32857 ft 479 kts 88°
2026-04-07 18:27 41.29356 73.50563 32857 ft 479 kts 87°
2026-04-07 18:27 41.29753 73.59411 32856 ft 479 kts 88°
2026-04-07 18:28 41.30142 73.68254 32845 ft 479 kts 87°
2026-04-07 18:28 41.30527 73.77117 32849 ft 480 kts 87°
2026-04-07 18:29 41.30903 73.85932 32842 ft 481 kts 87°
2026-04-07 18:29 41.31275 73.94818 32837 ft 481 kts 87°
2026-04-07 18:30 41.31670 74.03710 32837 ft 482 kts 86°
2026-04-07 18:30 41.32311 74.12578 32835 ft 482 kts 84°
2026-04-07 18:31 41.33001 74.21448 32835 ft 482 kts 85°
2026-04-07 18:31 41.33650 74.30329 32821 ft 482 kts 85°
2026-04-07 18:32 41.34270 74.39215 32815 ft 482 kts 85°
2026-04-07 18:32 41.34875 74.48033 32816 ft 481 kts 85°
2026-04-07 18:33 41.35480 74.56911 32812 ft 481 kts 85°
2026-04-07 18:33 41.36077 74.65783 32807 ft 481 kts 85°
2026-04-07 18:34 41.36670 74.74664 32801 ft 480 kts 85°
2026-04-07 18:34 41.37254 74.83523 32798 ft 480 kts 85°
2026-04-07 18:35 41.37828 74.92323 32806 ft 480 kts 85°
2026-04-07 18:35 41.38400 75.01180 32797 ft 480 kts 86°
2026-04-07 18:36 41.38964 75.10028 32793 ft 480 kts 85°
2026-04-07 18:36 41.39523 75.18875 32793 ft 480 kts 85°
2026-04-07 18:37 41.40076 75.27746 32796 ft 480 kts 85°
2026-04-07 18:37 41.40621 75.36609 32783 ft 480 kts 85°
2026-04-07 18:38 41.41160 75.45482 32784 ft 481 kts 85°
2026-04-07 18:38 41.41690 75.54311 32764 ft 481 kts 85°
2026-04-07 18:39 41.42215 75.63186 32767 ft 481 kts 85°
2026-04-07 18:39 41.42736 75.72071 32756 ft 480 kts 85°
2026-04-07 18:40 41.43248 75.80941 32753 ft 480 kts 85°
2026-04-07 18:40 41.43755 75.89796 32744 ft 479 kts 85°
2026-04-07 18:41 41.44255 75.98632 32745 ft 478 kts 85°
2026-04-07 18:41 41.44747 76.07452 32752 ft 477 kts 85°
2026-04-07 18:42 41.45231 76.16254 32761 ft 476 kts 85°
2026-04-07 18:42 41.45709 76.25078 32766 ft 477 kts 85°
2026-04-07 18:43 41.46179 76.33863 32771 ft 478 kts 85°
2026-04-07 18:43 41.46646 76.42730 32778 ft 479 kts 85°
2026-04-07 18:44 41.47107 76.51603 32792 ft 480 kts 85°
2026-04-07 18:44 41.47561 76.60486 32793 ft 480 kts 85°
2026-04-07 18:45 41.48010 76.69403 32801 ft 480 kts 85°
2026-04-07 18:45 41.48449 76.78275 32787 ft 479 kts 85°
2026-04-07 18:46 41.48879 76.87090 32811 ft 479 kts 85°
2026-04-07 18:46 41.49304 76.95942 32830 ft 478 kts 85°
2026-04-07 18:47 41.49722 77.04771 32824 ft 477 kts 85°
2026-04-07 18:47 41.50131 77.13575 32826 ft 475 kts 85°
2026-04-07 18:48 41.50533 77.22367 32835 ft 475 kts 85°
2026-04-07 18:48 41.50928 77.31163 32842 ft 475 kts 84°
2026-04-07 18:49 41.51316 77.39948 32843 ft 475 kts 84°
2026-04-07 18:49 41.51699 77.48754 32843 ft 475 kts 84°
2026-04-07 18:50 41.52074 77.57554 32854 ft 475 kts 84°
2026-04-07 18:50 41.52443 77.66360 32851 ft 475 kts 84°
2026-04-07 18:51 41.52802 77.75104 32852 ft 475 kts 84°
2026-04-07 18:51 41.53158 77.83907 32852 ft 475 kts 84°
2026-04-07 18:52 41.53506 77.92727 32839 ft 476 kts 84°
2026-04-07 18:52 41.53849 78.01545 32838 ft 476 kts 84°
2026-04-07 18:53 41.54185 78.10378 32873 ft 476 kts 84°
2026-04-07 18:53 41.54460 78.17700 32906 ft 476 kts 84°
2026-04-07 18:54 41.54783 78.26547 32952 ft 478 kts 84°
2026-04-07 18:54 41.55099 78.35403 32955 ft 476 kts 84°
2026-04-07 18:55 41.55409 78.44220 32969 ft 475 kts 84°
2026-04-07 18:55 41.55712 78.53035 32947 ft 475 kts 85°
2026-04-07 18:56 41.56007 78.61844 32958 ft 475 kts 85°
2026-04-07 18:56 41.56298 78.70650 32947 ft 475 kts 84°
2026-04-07 18:57 41.56538 78.79490 32942 ft 478 kts 88°
2026-04-07 18:57 41.55781 78.88354 32915 ft 484 kts 100°
2026-04-07 18:58 41.54062 78.97006 32909 ft 485 kts 103°
2026-04-07 18:58 41.52272 79.05697 32886 ft 486 kts 102°
2026-04-07 18:59 41.50507 79.14411 32864 ft 487 kts 102°
2026-04-07 18:59 41.48756 79.23157 32850 ft 489 kts 102°
2026-04-07 19:00 41.46994 79.31927 32836 ft 490 kts 102°
2026-04-07 19:00 41.45223 79.40685 32809 ft 489 kts 102°
2026-04-07 19:01 41.43448 79.49425 32806 ft 487 kts 103°
2026-04-07 19:02 41.40794 79.62421 32792 ft 486 kts 103°
2026-04-07 19:02 41.39013 79.71098 32793 ft 485 kts 103°
2026-04-07 19:03 41.37228 79.79758 32787 ft 485 kts 103°
2026-04-07 19:03 41.35437 79.88419 32786 ft 485 kts 103°
2026-04-07 19:04 41.33637 79.97079 32764 ft 486 kts 104°
2026-04-07 19:04 41.31831 80.05731 32785 ft 485 kts 104°
2026-04-07 19:05 41.30018 80.14386 32779 ft 485 kts 104°
2026-04-07 19:05 41.28196 80.23049 32782 ft 487 kts 104°
2026-04-07 19:06 41.26359 80.31748 32786 ft 490 kts 104°
2026-04-07 19:06 41.24495 80.40483 32781 ft 493 kts 104°
2026-04-07 19:07 41.22606 80.49258 32782 ft 494 kts 104°
2026-04-07 19:07 41.20710 80.58034 32782 ft 494 kts 104°
2026-04-07 19:08 41.18810 80.66803 32776 ft 493 kts 104°
2026-04-07 19:08 41.16910 80.75541 32779 ft 491 kts 104°
2026-04-07 19:09 41.15011 80.84243 32775 ft 490 kts 104°
2026-04-07 19:09 41.13121 80.92864 32780 ft 489 kts 104°
2026-04-07 19:10 41.11216 81.01521 32775 ft 489 kts 104°
2026-04-07 19:10 41.09304 81.10175 32775 ft 489 kts 104°
2026-04-07 19:11 41.07386 81.18823 32773 ft 489 kts 105°
2026-04-07 19:11 41.05454 81.27501 32769 ft 490 kts 105°
2026-04-07 19:12 41.03521 81.36146 32771 ft 489 kts 105°
2026-04-07 19:12 41.01581 81.44788 32764 ft 489 kts 104°
2026-04-07 19:13 40.99640 81.53405 32760 ft 488 kts 104°
2026-04-07 19:13 40.97696 81.62008 32762 ft 487 kts 104°
2026-04-07 19:14 40.95798 81.70609 32768 ft 486 kts 103°
2026-04-07 19:14 40.94171 81.79267 32759 ft 485 kts 101°
2026-04-07 19:15 40.92603 81.87875 32757 ft 484 kts 102°
2026-04-07 19:15 40.90987 81.96508 32759 ft 484 kts 102°
2026-04-07 19:16 40.89338 82.05138 32761 ft 484 kts 102°
2026-04-07 19:16 40.87677 82.13753 32761 ft 484 kts 102°
2026-04-07 19:17 40.86009 82.22377 32760 ft 484 kts 102°
2026-04-07 19:17 40.84334 82.31003 32759 ft 485 kts 102°
2026-04-07 19:18 40.82654 82.39626 32765 ft 485 kts 102°
2026-04-07 19:18 40.80967 82.48243 32760 ft 485 kts 102°
2026-04-07 19:19 40.79284 82.56803 32755 ft 485 kts 103°
2026-04-07 19:19 40.77584 82.65416 32759 ft 484 kts 103°
2026-04-07 19:20 40.75879 82.74014 32757 ft 484 kts 103°
2026-04-07 19:20 40.74169 82.82598 32762 ft 484 kts 103°
2026-04-07 19:21 40.72455 82.91173 32754 ft 483 kts 103°
2026-04-07 19:21 40.70734 82.99742 32760 ft 483 kts 103°
2026-04-07 19:22 40.69013 83.08277 32752 ft 482 kts 103°
2026-04-07 19:22 40.67286 83.16808 32759 ft 481 kts 103°
2026-04-07 19:23 40.65554 83.25324 32754 ft 481 kts 103°
2026-04-07 19:23 40.63819 83.33821 32755 ft 480 kts 103°
2026-04-07 19:24 40.62079 83.42308 32754 ft 480 kts 103°
2026-04-07 19:24 40.60332 83.50799 32757 ft 480 kts 103°
2026-04-07 19:25 40.58579 83.59283 32748 ft 481 kts 104°
2026-04-07 19:25 40.56827 83.67725 32759 ft 482 kts 104°
2026-04-07 19:26 40.55053 83.76236 32756 ft 483 kts 104°
2026-04-07 19:26 40.53273 83.84754 32761 ft 483 kts 105°
2026-04-07 19:27 40.51485 83.93273 32764 ft 483 kts 106°
2026-04-07 19:27 40.49737 84.01796 32757 ft 483 kts 105°
2026-04-07 19:28 40.48016 84.10331 32756 ft 482 kts 105°
2026-04-07 19:28 40.46296 84.18826 32755 ft 481 kts 105°
2026-04-07 19:29 40.44564 84.27308 32756 ft 481 kts 105°
2026-04-07 19:29 40.42821 84.35796 32756 ft 481 kts 105°
2026-04-07 19:30 40.41074 84.44264 32755 ft 481 kts 105°
2026-04-07 19:30 40.39323 84.52724 32757 ft 481 kts 105°
2026-04-07 19:31 40.37563 84.61193 32757 ft 481 kts 105°
2026-04-07 19:31 40.35796 84.69657 32759 ft 481 kts 105°
2026-04-07 19:32 40.34023 84.78122 32763 ft 482 kts 105°
2026-04-07 19:32 40.32244 84.86579 32757 ft 482 kts 105°
2026-04-07 19:33 40.30468 84.94990 32756 ft 482 kts 105°
2026-04-07 19:33 40.28675 85.03446 32749 ft 481 kts 105°
2026-04-07 19:34 40.26875 85.11902 32757 ft 481 kts 105°
2026-04-07 19:34 40.25070 85.20344 32761 ft 481 kts 105°
2026-04-07 19:35 40.23260 85.28782 32761 ft 481 kts 105°
2026-04-07 19:35 40.21444 85.37213 32761 ft 482 kts 105°
2026-04-07 19:36 40.19620 85.45648 32768 ft 482 kts 105°
2026-04-07 19:36 40.17789 85.54081 32764 ft 482 kts 105°
2026-04-07 19:37 40.15954 85.62504 32766 ft 481 kts 105°
2026-04-07 19:37 40.14114 85.70914 32764 ft 481 kts 105°
2026-04-07 19:38 40.12580 85.77902 32765 ft 481 kts 105°
2026-04-07 19:38 40.10733 85.86290 32771 ft 481 kts 105°
2026-04-07 19:39 40.08577 85.96047 32764 ft 481 kts 105°
2026-04-07 19:39 40.06930 86.03034 32762 ft 481 kts 108°
2026-04-07 19:40 40.04693 86.11280 32766 ft 481 kts 109°
2026-04-07 19:40 40.02422 86.19480 32764 ft 481 kts 109°
2026-04-07 19:41 40.00160 86.27693 32766 ft 481 kts 109°
2026-04-07 19:41 39.97904 86.35913 32762 ft 482 kts 109°
2026-04-07 19:42 39.95644 86.44142 32766 ft 482 kts 109°
2026-04-07 19:42 39.93395 86.52303 32760 ft 482 kts 109°
2026-04-07 19:43 39.91120 86.60528 32764 ft 482 kts 109°
2026-04-07 19:43 39.88842 86.68737 32764 ft 482 kts 109°
2026-04-07 19:44 39.86559 86.76934 32761 ft 482 kts 109°
2026-04-07 19:44 39.84271 86.85128 32764 ft 482 kts 109°
2026-04-07 19:45 39.81979 86.93308 32762 ft 481 kts 110°
2026-04-07 19:45 39.79680 87.01487 32763 ft 482 kts 109°
2026-04-07 19:46 39.77372 87.09673 32763 ft 482 kts 110°
2026-04-07 19:46 39.75070 87.17811 32753 ft 482 kts 110°
2026-04-07 19:47 39.72745 87.26001 32768 ft 483 kts 110°
2026-04-07 19:47 39.70415 87.34187 32770 ft 484 kts 110°
2026-04-07 19:48 39.68074 87.42387 32752 ft 485 kts 110°
2026-04-07 19:48 39.65721 87.50599 32763 ft 485 kts 110°
2026-04-07 19:49 39.63363 87.58805 32762 ft 485 kts 110°
2026-04-07 19:49 39.60998 87.67009 32764 ft 485 kts 110°
2026-04-07 19:50 39.58629 87.75202 32748 ft 486 kts 110°
2026-04-07 19:50 39.56265 87.83353 32763 ft 486 kts 110°
2026-04-07 19:51 39.53875 87.91573 32765 ft 489 kts 111°
2026-04-07 19:51 39.51461 87.99838 32763 ft 492 kts 111°
2026-04-07 19:52 39.49032 88.08136 32759 ft 494 kts 111°
2026-04-07 19:52 39.46585 88.16467 32757 ft 496 kts 111°
2026-04-07 19:53 39.44126 88.24815 32756 ft 497 kts 111°
2026-04-07 19:53 39.41657 88.33168 32771 ft 497 kts 111°
2026-04-07 19:54 39.39187 88.41502 32773 ft 496 kts 111°
2026-04-07 19:54 39.36708 88.49839 32755 ft 496 kts 111°
2026-04-07 19:55 39.34230 88.58145 32762 ft 496 kts 111°
2026-04-07 19:55 39.31754 88.66418 32780 ft 498 kts 112°
2026-04-07 19:56 39.29238 88.74798 32780 ft 501 kts 112°
2026-04-07 19:56 39.26707 88.83206 32782 ft 504 kts 112°
2026-04-07 19:57 39.24160 88.91639 32777 ft 505 kts 112°
2026-04-07 19:57 39.21604 89.00077 32769 ft 505 kts 112°
2026-04-07 19:58 39.19043 89.08503 32806 ft 505 kts 112°
2026-04-07 19:58 39.16478 89.16918 32791 ft 504 kts 112°
2026-04-07 19:59 39.13910 89.25316 32801 ft 503 kts 112°
2026-04-07 19:59 39.11342 89.33689 32814 ft 503 kts 113°
2026-04-07 20:00 39.08758 89.42087 32852 ft 506 kts 113°
2026-04-07 20:00 39.04845 89.54752 32871 ft 510 kts 113°
2026-04-07 20:01 39.02216 89.63234 32887 ft 511 kts 113°
2026-04-07 20:01 38.99578 89.71717 32901 ft 511 kts 113°
2026-04-07 20:02 38.96930 89.80208 32900 ft 510 kts 113°
2026-04-07 20:02 38.94302 89.88603 32885 ft 509 kts 113°
2026-04-07 20:03 38.91656 89.97038 32923 ft 508 kts 113°
2026-04-07 20:03 38.89008 90.05451 32925 ft 508 kts 114°
2026-04-07 20:04 38.86356 90.13849 32931 ft 508 kts 114°
2026-04-07 20:04 38.83699 90.22242 32955 ft 508 kts 114°
2026-04-07 20:05 38.81029 90.30651 32958 ft 509 kts 114°
2026-04-07 20:05 38.78363 90.39004 32954 ft 509 kts 114°
2026-04-07 20:06 38.75665 90.47393 32960 ft 509 kts 114°
2026-04-07 20:06 38.72967 90.55761 32956 ft 509 kts 114°
2026-04-07 20:07 38.70263 90.64136 32963 ft 509 kts 114°
2026-04-07 20:07 38.67609 90.72526 32952 ft 509 kts 112°
2026-04-07 20:08 38.65220 90.81056 32936 ft 509 kts 111°
2026-04-07 20:08 38.62872 90.89608 32950 ft 509 kts 111°
2026-04-07 20:09 38.60501 90.98154 32948 ft 510 kts 112°
2026-04-07 20:09 38.58105 91.06699 32952 ft 511 kts 112°
2026-04-07 20:10 38.55695 91.15247 32926 ft 512 kts 112°
2026-04-07 20:10 38.53281 91.23788 32925 ft 510 kts 112°
2026-04-07 20:11 38.50885 91.32236 32930 ft 509 kts 112°
2026-04-07 20:11 38.48470 91.40727 32915 ft 508 kts 112°
2026-04-07 20:12 38.46057 91.49185 32917 ft 507 kts 112°
2026-04-07 20:12 38.43639 91.57632 32913 ft 506 kts 113°
2026-04-07 20:13 38.41220 91.66053 32904 ft 506 kts 112°
2026-04-07 20:13 38.38795 91.74473 32908 ft 506 kts 112°
2026-04-07 20:14 38.36360 91.82900 32916 ft 507 kts 112°
2026-04-07 20:14 38.33916 91.91328 32904 ft 508 kts 112°
2026-04-07 20:15 38.31463 91.99764 32902 ft 509 kts 112°
2026-04-07 20:15 38.29011 92.08171 32903 ft 510 kts 112°
2026-04-07 20:16 38.26537 92.16627 32892 ft 510 kts 112°
2026-04-07 20:16 38.24054 92.25088 32893 ft 510 kts 112°
2026-04-07 20:17 38.21566 92.33540 32885 ft 510 kts 113°
2026-04-07 20:17 38.19071 92.41994 32893 ft 511 kts 113°
2026-04-07 20:18 38.16545 92.50447 32890 ft 510 kts 115°
2026-04-07 20:18 38.13581 92.58600 32881 ft 509 kts 118°
2026-04-07 20:19 38.10517 92.66707 32888 ft 509 kts 118°
2026-04-07 20:19 38.07464 92.74815 32887 ft 509 kts 118°
2026-04-07 20:20 38.04415 92.82955 32896 ft 510 kts 118°
2026-04-07 20:20 38.01389 92.91034 32894 ft 510 kts 118°
2026-04-07 20:21 37.98349 92.99125 32893 ft 510 kts 118°
2026-04-07 20:21 37.95292 93.07240 32891 ft 510 kts 118°
2026-04-07 20:22 37.92225 93.15354 32907 ft 510 kts 118°
2026-04-07 20:22 37.89177 93.23399 32894 ft 510 kts 119°
2026-04-07 20:23 37.86105 93.31485 32892 ft 510 kts 119°
2026-04-07 20:23 37.83021 93.39579 32888 ft 511 kts 119°
2026-04-07 20:24 37.79933 93.47667 32889 ft 511 kts 119°
2026-04-07 20:24 37.76835 93.55758 32873 ft 511 kts 119°
2026-04-07 20:25 37.73733 93.63838 32881 ft 511 kts 119°
2026-04-07 20:25 37.70620 93.71924 32877 ft 511 kts 119°
2026-04-07 20:26 37.67508 93.79989 32882 ft 511 kts 119°
2026-04-07 20:26 37.64920 93.86678 32857 ft 510 kts 119°
2026-04-07 20:27 37.61800 93.94726 32872 ft 510 kts 119°
2026-04-07 20:27 37.58676 94.02760 32868 ft 511 kts 119°
2026-04-07 20:28 37.55541 94.10802 32865 ft 511 kts 119°
2026-04-07 20:28 37.52399 94.18843 32865 ft 511 kts 119°
2026-04-07 20:29 37.49251 94.26876 32868 ft 512 kts 119°
2026-04-07 20:29 37.46095 94.34913 32856 ft 512 kts 119°
2026-04-07 20:30 37.42932 94.42944 32851 ft 512 kts 119°
2026-04-07 20:30 37.39763 94.50970 32852 ft 512 kts 119°
2026-04-07 20:31 37.36610 94.58937 32834 ft 511 kts 119°
2026-04-07 20:31 37.33442 94.66920 32844 ft 510 kts 119°
2026-04-07 20:32 37.30274 94.74884 32833 ft 509 kts 120°
2026-04-07 20:32 37.27107 94.82825 32833 ft 508 kts 120°
2026-04-07 20:33 37.23940 94.90745 32821 ft 507 kts 120°
2026-04-07 20:33 37.20768 94.98658 32824 ft 507 kts 120°
2026-04-07 20:34 37.17615 95.06505 32821 ft 507 kts 120°
2026-04-07 20:34 37.14436 95.14398 32821 ft 507 kts 120°
2026-04-07 20:35 37.11254 95.22277 32819 ft 506 kts 120°
2026-04-07 20:35 37.08073 95.30137 32818 ft 505 kts 120°
2026-04-07 20:36 37.04894 95.37971 32814 ft 503 kts 120°
2026-04-07 20:36 37.01727 95.45762 32811 ft 501 kts 120°
2026-04-07 20:37 36.98577 95.53535 32814 ft 500 kts 119°
2026-04-07 20:37 36.95504 95.61348 32813 ft 499 kts 119°
2026-04-07 20:38 36.92449 95.69136 32810 ft 499 kts 119°
2026-04-07 20:38 36.89393 95.76872 32812 ft 500 kts 119°
2026-04-07 20:39 36.86303 95.84659 32803 ft 501 kts 119°
2026-04-07 20:39 36.83203 95.92453 32801 ft 501 kts 119°
2026-04-07 20:40 36.80095 96.00253 32802 ft 502 kts 119°
2026-04-07 20:40 36.76982 96.08052 32795 ft 503 kts 119°
2026-04-07 20:41 36.73891 96.15880 32787 ft 503 kts 119°
2026-04-07 20:41 36.70808 96.23708 32791 ft 503 kts 119°
2026-04-07 20:42 36.67715 96.31527 32781 ft 503 kts 119°
2026-04-07 20:42 36.64612 96.39347 32769 ft 503 kts 119°
2026-04-07 20:43 36.61504 96.47156 32760 ft 503 kts 120°
2026-04-07 20:43 36.58413 96.54912 32764 ft 502 kts 120°
2026-04-07 20:44 36.55309 96.62699 32761 ft 502 kts 120°
2026-04-07 20:44 36.52239 96.70504 32757 ft 502 kts 119°
2026-04-07 20:45 36.49176 96.78303 32755 ft 501 kts 119°
2026-04-07 20:45 36.46104 96.86090 32743 ft 501 kts 120°
2026-04-07 20:46 36.43030 96.93853 32763 ft 501 kts 120°
2026-04-07 20:46 36.39947 97.01618 32750 ft 501 kts 120°
2026-04-07 20:47 36.36880 97.09325 32750 ft 501 kts 120°
2026-04-07 20:47 36.33789 97.17074 32755 ft 501 kts 120°
2026-04-07 20:48 36.30673 97.24868 32761 ft 501 kts 120°
2026-04-07 20:48 36.27588 97.32565 32759 ft 501 kts 120°
2026-04-07 20:49 36.24480 97.40302 32758 ft 502 kts 120°
2026-04-07 20:49 36.21367 97.48033 32776 ft 502 kts 120°
2026-04-07 20:50 36.18247 97.55764 32778 ft 502 kts 120°
2026-04-07 20:50 36.15129 97.63475 32775 ft 500 kts 120°
2026-04-07 20:51 36.12093 97.71212 32771 ft 498 kts 119°
2026-04-07 20:51 36.09130 97.78940 32781 ft 497 kts 119°
2026-04-07 20:52 36.06168 97.86638 32784 ft 495 kts 119°
2026-04-07 20:52 36.03194 97.94309 32792 ft 495 kts 119°
2026-04-07 20:53 36.00207 98.01975 32797 ft 494 kts 119°
2026-04-07 20:53 35.97245 98.09564 32807 ft 492 kts 118°
2026-04-07 20:54 35.94251 98.17219 32814 ft 492 kts 118°
2026-04-07 20:54 35.91296 98.24750 32837 ft 491 kts 118°
2026-04-07 20:55 35.88316 98.32331 32973 ft 492 kts 119°
2026-04-07 20:55 35.86822 98.36124 33365 ft 488 kts 118°
2026-04-07 20:55 35.85356 98.39849 33990 ft 479 kts 119°
2026-04-07 20:56 35.83900 98.43541 34160 ft 480 kts 119°
2026-04-07 20:56 35.82431 98.47256 34219 ft 484 kts 119°
2026-04-07 20:56 35.80949 98.50996 34373 ft 487 kts 119°
2026-04-07 20:56 35.79466 98.54737 34605 ft 487 kts 119°
2026-04-07 20:57 35.77978 98.58490 34784 ft 488 kts 119°
2026-04-07 20:57 35.76480 98.62262 34829 ft 491 kts 119°
2026-04-07 20:57 35.73480 98.69808 34896 ft 489 kts 119°
2026-04-07 20:58 35.70492 98.77307 34898 ft 487 kts 119°
2026-04-07 20:58 35.67514 98.84763 34887 ft 485 kts 118°
2026-04-07 20:59 35.64542 98.92185 34893 ft 483 kts 118°
2026-04-07 20:59 35.61572 98.99583 34897 ft 482 kts 118°
2026-04-07 21:00 35.57105 99.10679 34892 ft 484 kts 118°
2026-04-07 21:01 35.54125 99.18062 34886 ft 485 kts 118°
2026-04-07 21:01 35.51118 99.25495 34876 ft 486 kts 118°
2026-04-07 21:02 35.48104 99.32932 34877 ft 487 kts 118°
2026-04-07 21:02 35.45081 99.40367 34859 ft 487 kts 118°
2026-04-07 21:03 35.42055 99.47796 34852 ft 487 kts 118°
2026-04-07 21:03 35.39021 99.55231 34830 ft 488 kts 118°
2026-04-07 21:04 35.35975 99.62682 34842 ft 490 kts 118°
2026-04-07 21:04 35.32915 99.70143 34817 ft 491 kts 118°
2026-04-07 21:05 35.29862 99.77569 34815 ft 492 kts 118°
2026-04-07 21:05 35.26758 99.85103 34786 ft 492 kts 118°
2026-04-07 21:06 35.23665 99.92597 34790 ft 494 kts 118°
2026-04-07 21:06 35.20555 100.00111 34796 ft 496 kts 118°
2026-04-07 21:07 35.17448 100.07602 34788 ft 498 kts 118°
2026-04-07 21:07 35.14312 100.15150 34781 ft 498 kts 118°
2026-04-07 21:08 35.11166 100.22703 34766 ft 498 kts 119°
2026-04-07 21:08 35.08022 100.30234 34778 ft 497 kts 119°
2026-04-07 21:09 35.04879 100.37747 34756 ft 497 kts 120°
2026-04-07 21:09 35.01736 100.45242 34762 ft 496 kts 120°
2026-04-07 21:10 34.98591 100.52721 34762 ft 495 kts 120°
2026-04-07 21:10 34.95446 100.60186 34775 ft 493 kts 120°
2026-04-07 21:11 34.92321 100.67590 34766 ft 490 kts 120°
2026-04-07 21:11 34.89209 100.74947 34768 ft 487 kts 120°
2026-04-07 21:12 34.86104 100.82265 34759 ft 485 kts 120°
2026-04-07 21:12 34.83006 100.89557 34760 ft 485 kts 120°
2026-04-07 21:13 34.80427 100.95614 34761 ft 485 kts 120°
2026-04-07 21:13 34.77319 101.02897 34766 ft 485 kts 120°
2026-04-07 21:14 34.74203 101.10184 34767 ft 486 kts 120°
2026-04-07 21:14 34.71074 101.17486 34761 ft 488 kts 120°
2026-04-07 21:15 34.67932 101.24803 34765 ft 489 kts 120°
2026-04-07 21:15 34.64782 101.32123 34746 ft 489 kts 120°
2026-04-07 21:16 34.61629 101.39433 34753 ft 488 kts 120°
2026-04-07 21:16 34.58474 101.46734 34752 ft 488 kts 120°
2026-04-07 21:17 34.55322 101.54015 34748 ft 487 kts 120°
2026-04-07 21:17 34.52193 101.61223 34754 ft 486 kts 120°
2026-04-07 21:18 34.49038 101.68475 34736 ft 486 kts 120°
2026-04-07 21:18 34.45885 101.75713 34765 ft 485 kts 120°
2026-04-07 21:19 34.42730 101.82935 34755 ft 484 kts 120°
2026-04-07 21:19 34.39575 101.90146 34754 ft 484 kts 120°
2026-04-07 21:20 34.36423 101.97331 34751 ft 484 kts 120°
2026-04-07 21:20 34.33264 102.04517 34741 ft 483 kts 120°
2026-04-07 21:21 34.30106 102.11689 34752 ft 482 kts 120°
2026-04-07 21:21 34.26948 102.18847 34742 ft 482 kts 120°
2026-04-07 21:22 34.23788 102.25996 34750 ft 482 kts 120°
2026-04-07 21:22 34.20619 102.33148 34750 ft 482 kts 120°
2026-04-07 21:23 34.17467 102.40304 34752 ft 483 kts 120°
2026-04-07 21:23 34.14392 102.47512 34751 ft 482 kts 119°
2026-04-07 21:24 34.11332 102.54720 34754 ft 482 kts 119°
2026-04-07 21:24 34.08261 102.61912 34758 ft 482 kts 119°
2026-04-07 21:25 34.05196 102.69053 34762 ft 482 kts 120°
2026-04-07 21:25 34.02105 102.76234 34763 ft 483 kts 120°
2026-04-07 21:26 33.98999 102.83432 34754 ft 485 kts 120°
2026-04-07 21:26 33.95878 102.90655 34768 ft 487 kts 120°
2026-04-07 21:27 33.92739 102.97906 34765 ft 489 kts 120°
2026-04-07 21:27 33.89588 103.05169 34766 ft 489 kts 120°
2026-04-07 21:28 33.86428 103.12435 34753 ft 489 kts 120°
2026-04-07 21:28 33.83267 103.19690 34753 ft 490 kts 120°
2026-04-07 21:29 33.80098 103.26949 34766 ft 491 kts 120°
2026-04-07 21:29 33.76916 103.34219 34767 ft 492 kts 120°
2026-04-07 21:30 33.73723 103.41504 34762 ft 493 kts 120°
2026-04-07 21:30 33.70519 103.48797 34769 ft 494 kts 120°
2026-04-07 21:31 33.67326 103.56049 34762 ft 495 kts 120°
2026-04-07 21:31 33.64084 103.63398 34775 ft 496 kts 120°
2026-04-07 21:32 33.60849 103.70716 34783 ft 497 kts 120°
2026-04-07 21:32 33.57617 103.78010 34784 ft 498 kts 120°
2026-04-07 21:33 33.54357 103.85352 34778 ft 498 kts 120°
2026-04-07 21:33 33.51099 103.92678 34786 ft 498 kts 120°
2026-04-07 21:34 33.47833 104.00007 34783 ft 498 kts 120°
2026-04-07 21:34 33.44565 104.07325 34808 ft 497 kts 120°
2026-04-07 21:35 33.41291 104.14639 34793 ft 499 kts 120°
2026-04-07 21:35 33.37986 104.21943 34785 ft 497 kts 123°
2026-04-07 21:35 33.35926 104.25226 34819 ft 493 kts 136°
2026-04-07 21:36 33.33379 104.27950 34811 ft 491 kts 146°
2026-04-07 21:36 33.30497 104.30101 34798 ft 487 kts 157°
2026-04-07 21:36 33.27404 104.31742 34823 ft 485 kts 159°
2026-04-07 21:37 33.21185 104.34935 34816 ft 487 kts 159°
2026-04-07 21:37 33.14970 104.38198 34821 ft 489 kts 158°
2026-04-07 21:38 33.08747 104.41522 34802 ft 491 kts 158°
2026-04-07 21:38 33.02554 104.44836 34819 ft 491 kts 158°
2026-04-07 21:39 32.96324 104.48160 34797 ft 491 kts 158°
2026-04-07 21:39 32.90096 104.51474 34801 ft 490 kts 158°
2026-04-07 21:40 32.83881 104.54778 34807 ft 489 kts 158°
2026-04-07 21:40 32.77571 104.57739 34805 ft 485 kts 167°
2026-04-07 21:41 32.70964 104.59143 34807 ft 481 kts 179°
2026-04-07 21:41 32.64297 104.59376 34823 ft 480 kts 181°
2026-04-07 21:42 32.57614 104.59634 34818 ft 482 kts 180°
2026-04-07 21:42 32.50913 104.59945 34820 ft 482 kts 181°
2026-04-07 21:43 32.44210 104.60244 34805 ft 481 kts 181°
2026-04-07 21:43 32.37533 104.60554 34816 ft 480 kts 180°
2026-04-07 21:44 32.30859 104.60921 34822 ft 479 kts 180°
2026-04-07 21:44 32.24262 104.61287 34821 ft 477 kts 181°
2026-04-07 21:45 32.17649 104.61648 34821 ft 473 kts 181°
2026-04-07 21:45 32.11074 104.62010 34818 ft 472 kts 181°
2026-04-07 21:46 32.04506 104.62373 34811 ft 473 kts 181°
2026-04-07 21:46 31.97933 104.62727 34811 ft 472 kts 182°
2026-04-07 21:47 31.91385 104.63081 34801 ft 470 kts 182°
2026-04-07 21:47 31.84861 104.63431 34807 ft 468 kts 182°
2026-04-07 21:48 31.78364 104.63780 34800 ft 466 kts 182°
2026-04-07 21:48 31.71904 104.64072 34796 ft 463 kts 184°
2026-04-07 21:49 31.65526 104.64311 34791 ft 460 kts 184°
2026-04-07 21:49 31.59126 104.64555 34796 ft 459 kts 184°
2026-04-07 21:50 31.52740 104.64805 34796 ft 459 kts 184°
2026-04-07 21:50 31.46349 104.65058 34790 ft 459 kts 185°
2026-04-07 21:51 31.39976 104.65312 34789 ft 458 kts 185°
2026-04-07 21:51 31.33612 104.65564 34788 ft 457 kts 185°
2026-04-07 21:52 31.27249 104.65816 34798 ft 456 kts 185°
2026-04-07 21:52 31.20898 104.66067 34782 ft 456 kts 186°
2026-04-07 21:53 31.14560 104.66317 34789 ft 456 kts 186°
2026-04-07 21:53 31.08222 104.66565 34793 ft 456 kts 186°
2026-04-07 21:54 31.01871 104.66989 34790 ft 459 kts 182°
2026-04-07 21:54 30.95517 104.67751 34794 ft 459 kts 182°
2026-04-07 21:55 30.89172 104.68498 34787 ft 457 kts 183°
2026-04-07 21:55 30.82888 104.69212 34790 ft 456 kts 183°
2026-04-07 21:56 30.76578 104.69924 34795 ft 455 kts 183°
2026-04-07 21:56 30.70279 104.70635 34795 ft 454 kts 183°
2026-04-07 21:57 30.64002 104.71344 34785 ft 453 kts 184°
2026-04-07 21:57 30.58793 104.71931 34791 ft 452 kts 184°
2026-04-07 21:58 30.52540 104.72632 34799 ft 451 kts 184°
2026-04-07 21:58 30.46287 104.73320 34802 ft 451 kts 184°
2026-04-07 21:59 30.40027 104.74009 34809 ft 452 kts 184°
2026-04-07 21:59 30.33757 104.74700 34805 ft 452 kts 184°
2026-04-07 22:00 30.27486 104.75393 34806 ft 453 kts 184°
2026-04-07 22:00 30.21208 104.76083 34799 ft 453 kts 184°
2026-04-07 22:01 30.14920 104.76774 34799 ft 454 kts 184°
2026-04-07 22:01 30.08643 104.77464 34787 ft 452 kts 184°
2026-04-07 22:02 30.02377 104.78152 34789 ft 451 kts 184°
2026-04-07 22:02 29.96146 104.78838 34790 ft 450 kts 184°
2026-04-07 22:03 29.89917 104.79535 34799 ft 449 kts 184°
2026-04-07 22:03 29.80644 104.80570 34782 ft 446 kts 185°
2026-04-07 22:04 29.74484 104.81255 34791 ft 444 kts 185°
2026-04-07 22:04 29.68301 104.81943 34793 ft 443 kts 185°
2026-04-07 22:05 29.62171 104.82621 34790 ft 442 kts 185°
2026-04-07 22:05 29.56040 104.83298 34786 ft 443 kts 185°
2026-04-07 22:06 29.49914 104.83977 34776 ft 442 kts 185°
2026-04-07 22:06 29.43792 104.84654 34780 ft 442 kts 185°
2026-04-07 22:07 29.37712 104.85343 34781 ft 444 kts 183°
2026-04-07 22:07 29.31581 104.86953 34782 ft 459 kts 174°
2026-04-07 22:08 29.25553 104.89672 34734 ft 470 kts 167°
2026-04-07 22:08 29.19600 104.92758 34756 ft 469 kts 167°
2026-04-07 22:09 29.13647 104.95779 34774 ft 467 kts 168°
2026-04-07 22:09 29.07716 104.98756 34771 ft 467 kts 168°
2026-04-07 22:10 29.01766 105.01749 34781 ft 467 kts 168°
2026-04-07 22:10 28.95811 105.04741 34733 ft 467 kts 168°
2026-04-07 22:11 28.89867 105.07730 34768 ft 467 kts 167°
2026-04-07 22:11 28.83915 105.10726 34777 ft 467 kts 167°
2026-04-07 22:12 28.77966 105.13726 34777 ft 469 kts 166°
2026-04-07 22:12 28.72122 105.17170 34776 ft 474 kts 163°
2026-04-07 22:13 28.66300 105.20731 34728 ft 475 kts 163°
2026-04-07 22:13 28.60478 105.24274 34778 ft 474 kts 164°
2026-04-07 22:14 28.54692 105.27768 34776 ft 474 kts 164°
2026-04-07 22:14 28.48852 105.31284 34764 ft 475 kts 164°
2026-04-07 22:15 28.43011 105.34800 34778 ft 476 kts 164°
2026-04-07 22:15 28.37155 105.38320 34785 ft 477 kts 164°
2026-04-07 22:16 28.31289 105.41843 34778 ft 477 kts 164°
2026-04-07 22:16 28.25404 105.45372 34788 ft 479 kts 164°
2026-04-07 22:17 28.19498 105.48915 34799 ft 481 kts 164°
2026-04-07 22:17 28.13576 105.52452 34799 ft 480 kts 164°
2026-04-07 22:18 28.07644 105.55839 34803 ft 470 kts 170°
2026-04-07 22:18 28.01534 105.57956 34785 ft 451 kts 179°
2026-04-07 22:19 27.95413 105.58972 34810 ft 443 kts 184°
2026-04-07 22:19 27.89318 105.59903 34803 ft 441 kts 183°
2026-04-07 22:20 27.83224 105.60978 34804 ft 451 kts 178°
2026-04-07 22:20 27.77159 105.63211 34802 ft 465 kts 169°
2026-04-07 22:21 27.71285 105.66604 34826 ft 481 kts 162°
2026-04-07 22:21 27.65431 105.70181 34822 ft 480 kts 165°
2026-04-07 22:22 27.59412 105.73413 34839 ft 479 kts 166°
2026-04-07 22:22 27.53359 105.76595 34833 ft 480 kts 166°
2026-04-07 22:23 27.47319 105.79824 34868 ft 480 kts 166°
2026-04-07 22:23 27.41294 105.83074 34843 ft 480 kts 166°
2026-04-07 22:24 27.35280 105.86319 34846 ft 479 kts 166°
2026-04-07 22:24 27.29278 105.89551 34850 ft 477 kts 166°
2026-04-07 22:25 27.23286 105.92769 34861 ft 476 kts 166°
2026-04-07 22:25 27.17314 105.95974 34859 ft 476 kts 166°
2026-04-07 22:26 27.11340 105.99177 34857 ft 476 kts 166°
2026-04-07 22:26 27.05492 106.02818 34853 ft 494 kts 154°
2026-04-07 22:27 27.02827 106.05336 34867 ft 506 kts 146°
2026-04-07 22:27 27.00418 106.08283 34872 ft 520 kts 138°
2026-04-07 22:27 26.96060 106.14817 34875 ft 525 kts 136°
2026-04-07 22:28 26.91762 106.21386 34884 ft 526 kts 136°
2026-04-07 22:28 26.87376 106.27949 34882 ft 526 kts 137°
2026-04-07 22:29 26.82956 106.34475 34883 ft 526 kts 137°
2026-04-07 22:29 26.78532 106.40991 34888 ft 523 kts 136°
2026-04-07 22:30 26.74154 106.47439 34891 ft 522 kts 136°
2026-04-07 22:30 26.69770 106.53886 34913 ft 520 kts 136°
2026-04-07 22:31 26.65396 106.60313 34921 ft 519 kts 136°
2026-04-07 22:31 26.61022 106.66728 34926 ft 518 kts 136°
2026-04-07 22:32 26.56654 106.73130 34919 ft 518 kts 136°
2026-04-07 22:32 26.52244 106.79486 34924 ft 515 kts 140°
2026-04-07 22:33 26.47338 106.85108 34941 ft 507 kts 146°
2026-04-07 22:33 26.42247 106.90596 34931 ft 509 kts 145°
2026-04-07 22:34 26.37180 106.96139 34927 ft 511 kts 144°
2026-04-07 22:34 26.32111 107.01724 34939 ft 512 kts 144°
2026-04-07 22:35 26.27018 107.07302 34951 ft 513 kts 144°
2026-04-07 22:35 26.21931 107.12888 34953 ft 514 kts 144°
2026-04-07 22:36 26.16882 107.18439 34969 ft 512 kts 144°
2026-04-07 22:36 26.11772 107.24037 34936 ft 511 kts 144°
2026-04-07 22:37 26.06730 107.29548 34961 ft 510 kts 144°
2026-04-07 22:37 26.01672 107.35071 34960 ft 510 kts 144°
2026-04-07 22:38 25.96609 107.40595 34934 ft 510 kts 144°
2026-04-07 22:38 25.91550 107.46112 34947 ft 509 kts 144°
2026-04-07 22:39 25.86488 107.51623 34962 ft 510 kts 144°
2026-04-07 22:39 25.81420 107.57132 34952 ft 510 kts 144°
2026-04-07 22:40 25.76342 107.62646 34935 ft 510 kts 144°
2026-04-07 22:40 25.71259 107.68159 34937 ft 510 kts 143°
2026-04-07 22:41 25.67061 107.72741 34952 ft 510 kts 143°
2026-04-07 22:41 25.62020 107.78266 34940 ft 510 kts 143°
2026-04-07 22:42 25.56973 107.83786 34956 ft 510 kts 143°
2026-04-07 22:42 25.51919 107.89303 34941 ft 511 kts 143°
2026-04-07 22:43 25.46617 107.94368 34934 ft 491 kts 159°
2026-04-07 22:43 25.43586 107.95976 34935 ft 478 kts 168°
2026-04-07 22:43 25.40428 107.97012 34934 ft 467 kts 177°
2026-04-07 22:44 25.34075 107.97782 34946 ft 459 kts 182°
2026-04-07 22:44 25.27695 107.98494 34944 ft 462 kts 182°
2026-04-07 22:45 25.21279 107.99263 34937 ft 465 kts 181°
2026-04-07 22:45 25.14880 108.00052 34929 ft 466 kts 181°
2026-04-07 22:46 25.08428 108.00854 34926 ft 467 kts 181°
2026-04-07 22:46 25.01973 108.01639 34924 ft 466 kts 181°
2026-04-07 22:47 24.95535 108.02426 34926 ft 465 kts 181°
2026-04-07 22:47 24.89101 108.03212 34915 ft 465 kts 181°
2026-04-07 22:48 24.82671 108.03994 34899 ft 464 kts 181°
2026-04-07 22:48 24.76253 108.04779 34905 ft 463 kts 181°
2026-04-07 22:49 24.69840 108.05562 34920 ft 463 kts 181°
2026-04-07 22:49 24.63442 108.06340 34913 ft 463 kts 181°
2026-04-07 22:50 24.57041 108.07119 34914 ft 463 kts 181°
2026-04-07 22:50 24.50633 108.07897 34895 ft 463 kts 180°
2026-04-07 22:51 24.44219 108.08674 34904 ft 463 kts 181°
2026-04-07 22:51 24.37843 108.09443 34925 ft 464 kts 180°
2026-04-07 22:52 24.31403 108.10232 34928 ft 466 kts 180°
2026-04-07 22:52 24.24959 108.11025 34933 ft 466 kts 180°
2026-04-07 22:53 24.18498 108.11805 34913 ft 467 kts 180°
2026-04-07 22:53 24.12039 108.12582 34920 ft 467 kts 180°
2026-04-07 22:54 24.05572 108.13363 34913 ft 467 kts 180°
2026-04-07 22:54 23.99105 108.14149 34904 ft 467 kts 180°
2026-04-07 22:55 23.92654 108.14927 34920 ft 465 kts 180°
2026-04-07 22:55 23.89476 108.15710 34904 ft 479 kts 165°
2026-04-07 22:55 23.86503 108.17502 34904 ft 500 kts 148°
2026-04-07 22:56 23.83990 108.20215 34890 ft 519 kts 132°
2026-04-07 22:56 23.82149 108.23647 34944 ft 530 kts 117°
2026-04-07 22:56 23.81139 108.27557 34920 ft 541 kts 99°
2026-04-07 22:56 23.80836 108.31661 34896 ft 544 kts 96°
2026-04-07 22:57 23.80585 108.39938 34910 ft 545 kts 94°
2026-04-07 22:57 23.80288 108.48140 34903 ft 535 kts 96°
2026-04-07 22:58 23.79847 108.56237 34915 ft 534 kts 96°
2026-04-07 22:58 23.79353 108.64332 34918 ft 535 kts 96°
2026-04-07 22:59 23.78862 108.72444 34914 ft 536 kts 96°
2026-04-07 22:59 23.78378 108.80566 34915 ft 537 kts 96°
2026-04-07 23:00 23.77889 108.88714 34908 ft 538 kts 96°
2026-04-07 23:00 23.77399 108.96811 34913 ft 538 kts 96°
2026-04-07 23:01 23.76901 109.04960 34928 ft 538 kts 96°
2026-04-07 23:02 23.75905 109.17149 34911 ft 536 kts 104°
2026-04-07 23:02 23.74298 109.25070 34917 ft 534 kts 106°
2026-04-07 23:03 23.72629 109.32977 34921 ft 534 kts 106°
2026-04-07 23:03 23.71012 109.40901 34926 ft 535 kts 105°
2026-04-07 23:04 23.69412 109.48834 34911 ft 535 kts 105°
2026-04-07 23:04 23.68609 109.52799 34660 ft 536 kts 105°
2026-04-07 23:04 23.67803 109.56774 34367 ft 533 kts 105°
2026-04-07 23:04 23.67012 109.60663 34098 ft 528 kts 106°
2026-04-07 23:05 23.66218 109.64555 33819 ft 523 kts 106°
2026-04-07 23:05 23.65426 109.68418 33526 ft 519 kts 106°
2026-04-07 23:05 23.64637 109.72249 33219 ft 516 kts 106°
2026-04-07 23:05 23.63851 109.76054 32912 ft 513 kts 106°
2026-04-07 23:06 23.63069 109.79839 32610 ft 510 kts 106°
2026-04-07 23:06 23.62289 109.83610 32318 ft 507 kts 106°
2026-04-07 23:06 23.61515 109.87348 32018 ft 505 kts 106°
2026-04-07 23:06 23.60744 109.91074 31731 ft 503 kts 107°
2026-04-07 23:07 23.59975 109.94783 31461 ft 501 kts 107°
2026-04-07 23:07 23.59209 109.98481 31174 ft 500 kts 107°
2026-04-07 23:07 23.58443 110.02169 31019 ft 497 kts 107°
2026-04-07 23:08 23.56886 110.09601 30984 ft 514 kts 107°
2026-04-07 23:08 23.56080 110.13443 30985 ft 526 kts 107°
2026-04-07 23:08 23.55258 110.17372 30980 ft 537 kts 107°
2026-04-07 23:09 23.53592 110.25364 30971 ft 541 kts 107°
2026-04-07 23:09 23.51929 110.33312 30963 ft 541 kts 107°
2026-04-07 23:10 23.50265 110.41309 30961 ft 541 kts 106°
2026-04-07 23:10 23.48643 110.49329 30960 ft 541 kts 106°
2026-04-07 23:11 23.47019 110.57341 30960 ft 542 kts 106°
2026-04-07 23:11 23.45382 110.65354 30961 ft 542 kts 106°
2026-04-07 23:12 23.43738 110.73369 30963 ft 542 kts 106°
2026-04-07 23:12 23.42052 110.81371 30951 ft 542 kts 107°
2026-04-07 23:13 23.40345 110.89370 30959 ft 542 kts 107°
2026-04-07 23:13 23.38642 110.97357 30963 ft 541 kts 107°
2026-04-07 23:14 23.36954 111.05283 30962 ft 541 kts 107°
2026-04-07 23:14 23.35251 111.13259 30962 ft 541 kts 107°
2026-04-07 23:15 23.33588 111.21237 30963 ft 540 kts 105°
2026-04-07 23:15 23.31989 111.29227 30967 ft 540 kts 105°
2026-04-07 23:16 23.30378 111.37219 30967 ft 540 kts 105°
2026-04-07 23:16 23.28753 111.45190 30971 ft 540 kts 105°
2026-04-07 23:17 23.27124 111.53171 30972 ft 540 kts 106°
2026-04-07 23:17 23.25439 111.61134 30985 ft 540 kts 106°
2026-04-07 23:18 23.23722 111.69090 30988 ft 541 kts 107°
2026-04-07 23:18 23.22009 111.77063 30974 ft 541 kts 106°
2026-04-07 23:19 23.20306 111.85019 30977 ft 540 kts 106°
2026-04-07 23:19 23.18663 111.92922 30993 ft 539 kts 106°
2026-04-07 23:20 23.17025 112.00872 30997 ft 539 kts 105°
2026-04-07 23:20 23.15377 112.08817 30994 ft 538 kts 106°
2026-04-07 23:21 23.13717 112.16748 30993 ft 538 kts 106°
2026-04-07 23:21 23.12055 112.24674 31008 ft 538 kts 105°
2026-04-07 23:22 23.10395 112.32589 31009 ft 538 kts 106°
2026-04-07 23:22 23.08728 112.40517 31009 ft 537 kts 106°
2026-04-07 23:23 23.07114 112.48438 31000 ft 538 kts 103°
2026-04-07 23:23 23.06369 112.56539 31013 ft 539 kts 96°
2026-04-07 23:24 23.05907 112.64667 31015 ft 539 kts 96°
2026-04-07 23:24 23.05397 112.72782 31011 ft 538 kts 96°
2026-04-07 23:25 23.04940 112.79520 31014 ft 538 kts 96°
2026-04-07 23:25 23.04381 112.87618 31018 ft 538 kts 96°
2026-04-07 23:26 23.03823 112.95716 31013 ft 538 kts 96°
2026-04-07 23:26 23.03269 113.03751 31003 ft 522 kts 96°
2026-04-07 23:27 23.02608 113.11459 30966 ft 506 kts 106°
2026-04-07 23:27 23.01397 113.15004 30964 ft 498 kts 124°
2026-04-07 23:27 22.99338 113.17970 30977 ft 489 kts 140°
2026-04-07 23:28 22.93855 113.22094 30931 ft 470 kts 165°
2026-04-07 23:28 22.90782 113.23171 30652 ft 462 kts 168°
2026-04-07 23:28 22.87700 113.24160 30311 ft 461 kts 168°
2026-04-07 23:28 22.84628 113.25155 29989 ft 460 kts 168°
2026-04-07 23:29 22.81613 113.26158 29675 ft 458 kts 168°
2026-04-07 23:29 22.78580 113.27191 29377 ft 455 kts 167°
2026-04-07 23:29 22.75570 113.28231 29079 ft 453 kts 167°
2026-04-07 23:29 22.72582 113.29269 28776 ft 450 kts 167°
2026-04-07 23:30 22.69608 113.30303 28460 ft 448 kts 167°
2026-04-07 23:30 22.66645 113.31331 28150 ft 446 kts 167°
2026-04-07 23:30 22.63700 113.32350 27851 ft 444 kts 167°
2026-04-07 23:30 22.60757 113.33369 27558 ft 441 kts 167°
2026-04-07 23:31 22.57840 113.34379 27258 ft 439 kts 167°
2026-04-07 23:31 22.54935 113.35386 26975 ft 437 kts 167°
2026-04-07 23:31 22.52043 113.36387 26703 ft 435 kts 167°
2026-04-07 23:31 22.49166 113.37384 26450 ft 434 kts 167°
2026-04-07 23:32 22.46297 113.38376 26179 ft 432 kts 167°
2026-04-07 23:32 22.43444 113.39362 25914 ft 430 kts 167°
2026-04-07 23:32 22.40604 113.40345 25657 ft 428 kts 167°
2026-04-07 23:32 22.37776 113.41323 25245 ft 426 kts 167°
2026-04-07 23:33 22.34964 113.42295 24784 ft 423 kts 166°
2026-04-07 23:33 22.32170 113.43260 24297 ft 421 kts 166°
2026-04-07 23:33 22.29387 113.44222 23822 ft 419 kts 166°
2026-04-07 23:33 22.26613 113.45178 23277 ft 418 kts 166°
2026-04-07 23:34 22.23850 113.46130 22764 ft 416 kts 166°
2026-04-07 23:34 22.21107 113.47081 22250 ft 413 kts 165°
2026-04-07 23:34 22.18387 113.48060 21768 ft 410 kts 165°
2026-04-07 23:34 22.15727 113.49032 21300 ft 407 kts 164°
2026-04-07 23:35 22.13054 113.50012 20834 ft 405 kts 164°
2026-04-07 23:35 22.10395 113.50984 20363 ft 403 kts 164°
2026-04-07 23:35 22.07745 113.51949 19892 ft 400 kts 165°
2026-04-07 23:35 22.05104 113.52907 19421 ft 399 kts 165°
2026-04-07 23:36 22.02479 113.53857 18944 ft 397 kts 165°
2026-04-07 23:36 21.99863 113.54806 18474 ft 396 kts 164°
2026-04-07 23:36 21.97264 113.55798 17966 ft 396 kts 161°
2026-04-07 23:36 21.94731 113.56933 17572 ft 391 kts 158°
2026-04-07 23:37 21.92269 113.58101 17259 ft 384 kts 158°
2026-04-07 23:37 21.89840 113.59257 16893 ft 379 kts 159°
2026-04-07 23:37 21.87424 113.60395 16430 ft 377 kts 159°
2026-04-07 23:37 21.85018 113.61514 15925 ft 377 kts 160°
2026-04-07 23:38 21.82608 113.62629 15461 ft 376 kts 159°
2026-04-07 23:38 21.80214 113.63733 14975 ft 370 kts 159°
2026-04-07 23:38 21.77875 113.64810 14457 ft 363 kts 159°
2026-04-07 23:38 21.75567 113.65874 13973 ft 355 kts 159°
2026-04-07 23:39 21.73361 113.66972 13453 ft 347 kts 150°
2026-04-07 23:39 21.71616 113.68720 12883 ft 343 kts 124°
2026-04-07 23:39 21.70665 113.71033 12369 ft 339 kts 103°
2026-04-07 23:39 21.70545 113.73542 11948 ft 336 kts 82°
2026-04-07 23:40 21.71182 113.75943 11680 ft 334 kts 64°
2026-04-07 23:40 21.72434 113.78014 11475 ft 328 kts 43°
2026-04-07 23:40 21.74128 113.79659 11342 ft 329 kts 38°
2026-04-07 23:40 21.75858 113.81288 11194 ft 331 kts 39°
2026-04-07 23:41 21.77583 113.82934 11007 ft 326 kts 39°
2026-04-07 23:41 21.79238 113.84541 10720 ft 315 kts 40°
2026-04-07 23:41 21.80833 113.86100 10359 ft 306 kts 40°
2026-04-07 23:41 21.82390 113.87623 9973 ft 299 kts 40°
2026-04-07 23:42 21.84024 113.88949 9548 ft 290 kts 20°
2026-04-07 23:42 21.85970 113.89380 9177 ft 286 kts 354°
2026-04-07 23:42 21.87873 113.88985 8867 ft 282 kts 335°
2026-04-07 23:42 21.89675 113.88136 8546 ft 284 kts 331°
2026-04-07 23:43 21.91474 113.87223 8213 ft 287 kts 331°
2026-04-07 23:43 21.93279 113.86305 7879 ft 287 kts 330°
2026-04-07 23:43 21.95085 113.85385 7548 ft 287 kts 331°
2026-04-07 23:43 21.96889 113.84476 7240 ft 285 kts 331°
2026-04-07 23:44 21.98682 113.83576 6967 ft 284 kts 331°
2026-04-07 23:44 22.00467 113.82683 6682 ft 282 kts 331°
2026-04-07 23:44 22.02223 113.81808 6351 ft 274 kts 330°
2026-04-07 23:44 22.03933 113.80954 5986 ft 267 kts 331°
2026-04-07 23:45 22.05597 113.80126 5612 ft 260 kts 331°
2026-04-07 23:45 22.07218 113.79318 5240 ft 254 kts 331°
2026-04-07 23:45 22.08798 113.78530 4893 ft 247 kts 332°
2026-04-07 23:45 22.10348 113.77761 4537 ft 244 kts 335°
2026-04-07 23:46 22.12008 113.77342 4287 ft 249 kts 356°
2026-04-07 23:46 22.13745 113.77213 4032 ft 251 kts 356°
2026-04-07 23:46 22.15492 113.77061 3708 ft 249 kts 357°
2026-04-07 23:46 22.17188 113.76900 3400 ft 241 kts 358°
2026-04-07 23:47 22.18830 113.76739 3084 ft 233 kts 357°
2026-04-07 23:47 22.20411 113.76580 2776 ft 224 kts 358°
2026-04-07 23:47 22.21933 113.76424 2457 ft 216 kts 359°
2026-04-07 23:47 22.23415 113.76286 2178 ft 207 kts
2026-04-07 23:48 22.24696 113.76695 2018 ft 185 kts 45°
2026-04-07 23:48 22.25410 113.77729 1805 ft 166 kts 70°
2026-04-07 23:48 22.25911 113.78850 1785 ft 167 kts 71°
2026-04-07 23:48 22.26406 113.79982 1743 ft 165 kts 72°
2026-04-07 23:49 22.26822 113.81113 1698 ft 159 kts 74°
2026-04-07 23:49 22.27190 113.82236 1486 ft 157 kts 75°
2026-04-07 23:49 22.27545 113.83339 1274 ft 154 kts 75°
2026-04-07 23:49 22.27895 113.84432 1072 ft 157 kts 76°
2026-04-07 23:50 22.28248 113.85534 885 ft 154 kts 74°
2026-04-07 23:50 22.28599 113.86624 686 ft 155 kts 73°
2026-04-07 23:50 22.28959 113.87706 487 ft 154 kts 72°
2026-04-07 23:50 22.29306 113.88785 299 ft 151 kts 73°
2026-04-07 23:51 22.29643 113.89854 90 ft 150 kts 72°
2026-04-07 23:51 22.29965 113.90882 36 ft 130 kts 72°
2026-04-07 23:51 22.30211 113.91638 37 ft 86 kts 71°
2026-04-07 23:51 22.30355 113.92079 38 ft 34 kts 70°
2026-04-07 23:52 22.30438 113.92268 38 ft 25 kts 55°
2026-04-07 23:52 22.30522 113.92368 38 ft 13 kts 43°
2026-04-07 23:52 22.30583 113.92422 37 ft 11 kts 39°
2026-04-07 23:52 22.30641 113.92478 37 ft 11 kts 44°
2026-04-07 23:53 22.30686 113.92545 37 ft 11 kts 65°
2026-04-07 23:53 22.30712 113.92620 37 ft 11 kts 70°
2026-04-07 23:53 22.30738 113.92697 37 ft 11 kts 71°
2026-04-07 23:53 22.30764 113.92767 37 ft 10 kts 57°
2026-04-07 23:54 22.30823 113.92785 37 ft 9 kts 345°
2026-04-07 23:54 22.30875 113.92770 37 ft 7 kts 346°
2026-04-07 23:54 22.30915 113.92769 37 ft 3 kts
2026-04-07 23:54 22.30937 113.92762 37 ft 3 kts 336°
2026-04-07 23:55 22.30954 113.92747 37 ft 3 kts 313°
2026-04-07 23:55 22.30965 113.92725 37 ft 3 kts 295°
2026-04-07 23:55 22.30975 113.92702 37 ft 3 kts 295°
2026-04-07 23:55 22.30985 113.92680 37 ft 3 kts 296°
2026-04-07 23:56 22.30990 113.92669 37 ft 0 kts 296°
2026-04-07 23:56 22.30993 113.92661 37 ft 0 kts 296°